<- Previous Day | Today | Next Day ->

All Data for 22 September 2021

 

Time A - D Temp A - D Dew Point A - D Humidity A - D Pressure A - D Wind A - D Wind Dir Gust A - D Rain Rate A - D Rain Total
00:00 13.6 12.3 92 1030.8 3.1 NE 3.1 0.0 0.0
00:01 13.6 12.3 92 1030.6 2.2 NNE 3.1 0.0 0.0
00:02 13.6 12.3 92 1030.8 3.1 E 3.1 0.0 0.0
00:03 13.6 12.3 92 1030.7 3.1 NE 3.1 0.0 0.0
00:04 13.6 12.3 92 1030.8 2.2 E 3.1 0.0 0.0
00:05 13.6 12.3 92 1030.6 2.2 NE 3.1 0.0 0.0
00:07 13.6 12.3 92 1030.7 2.2 E 3.1 0.0 0.0
00:08 13.6 12.3 92 1030.7 2.2 NE 3.1 0.0 0.0
00:09 13.6 12.3 92 1030.7 3.1 NE 3.1 0.0 0.0
00:10 13.6 12.3 92 1030.6 2.2 E 3.1 0.0 0.0
00:11 13.6 12.3 92 1030.6 2.2 E 3.1 0.0 0.0
00:12 13.6 12.3 92 1030.8 2.2 NE 3.1 0.0 0.0
00:13 13.6 12.3 92 1030.8 1.6 NE 3.1 0.0 0.0
00:14 13.6 12.3 92 1030.7 1.6 NE 3.1 0.0 0.0
00:15 13.6 12.3 92 1030.6 0.7 S 3.1 0.0 0.0
00:16 13.6 12.3 92 1030.5 0.7 S 3.1 0.0 0.0
00:17 13.5 12.2 92 1030.7 0.0 SW 3.1 0.0 0.0
00:18 13.5 12.2 92 1030.7 0.0 SW 3.1 0.0 0.0
00:19 13.4 12.1 92 1030.8 0.0 S 3.1 0.0 0.0
00:21 13.3 12.0 92 1030.4 1.6 S 2.2 0.0 0.0
00:22 13.1 11.8 92 1030.6 1.6 S 2.2 0.0 0.0
00:23 13.1 11.8 92 1030.7 1.6 S 1.6 0.0 0.0
00:24 13.0 11.6 91 1030.6 1.6 S 1.6 0.0 0.0
00:25 13.0 11.6 91 1030.6 1.6 S 1.6 0.0 0.0
00:26 13.0 11.6 91 1030.5 0.7 SE 1.6 0.0 0.0
00:27 12.9 11.5 91 1030.4 0.0 SE 1.6 0.0 0.0
00:28 12.9 11.5 91 1030.8 0.7 NE 1.6 0.0 0.0
00:29 12.9 11.5 91 1030.7 0.0 NE 1.6 0.0 0.0
00:30 12.8 11.4 91 1030.4 0.0 NE 1.6 0.0 0.0
00:31 12.8 11.4 91 1030.5 0.0 NE 1.6 0.0 0.0
00:32 12.8 11.4 91 1030.3 0.7 NE 1.6 0.0 0.0
00:33 12.8 11.4 91 1030.5 0.0 NE 1.6 0.0 0.0
00:35 12.7 11.3 91 1030.5 0.0 NE 0.7 0.0 0.0
00:36 12.7 11.3 91 1030.4 0.0 NE 0.7 0.0 0.0
00:37 12.6 11.2 91 1030.4 0.0 NE 0.7 0.0 0.0
00:38 12.6 11.2 91 1030.4 0.0 NE 0.7 0.0 0.0
00:39 12.6 11.2 91 1030.4 0.0 NE 0.7 0.0 0.0
00:40 12.6 11.2 91 1030.4 0.0 NE 0.7 0.0 0.0
00:41 12.5 11.1 91 1030.5 0.0 NE 0.7 0.0 0.0
00:42 12.5 11.1 91 1030.3 0.0 NE 0.7 0.0 0.0
00:43 12.5 11.1 91 1030.4 0.0 NE 0.0 0.0 0.0
00:44 12.5 11.1 91 1030.3 0.0 NE 0.0 0.0 0.0
00:45 12.4 11.5 94 1030.2 0.7 E 0.7 0.0 0.0
00:46 12.4 11.5 94 1030.2 1.6 NE 1.6 0.0 0.0
00:47 12.4 11.5 94 1030.4 0.7 NE 1.6 0.0 0.0
00:48 12.4 11.5 94 1030.3 0.7 NE 1.6 0.0 0.0
00:50 12.4 11.5 94 1030.5 0.7 NE 1.6 0.0 0.0
00:51 12.4 11.5 94 1030.2 1.6 NE 1.6 0.0 0.0
00:52 12.4 11.5 94 1030.4 1.6 NE 1.6 0.0 0.0
00:53 12.4 11.5 94 1030.3 1.6 NE 1.6 0.0 0.0
00:54 12.4 11.5 94 1030.3 2.2 E 2.2 0.0 0.0
00:55 12.4 11.5 94 1030.3 2.2 NE 2.2 0.0 0.0
00:56 12.4 11.5 94 1030.2 2.2 NE 2.2 0.0 0.0
00:57 12.5 11.1 91 1030.3 1.6 NE 2.2 0.0 0.0
00:58 12.5 11.1 91 1030.1 2.2 E 2.2 0.0 0.0
00:59 12.5 11.1 91 1030.4 1.6 E 2.2 0.0 0.0
01:00 12.5 11.1 91 1030.2 0.7 N 2.2 0.0 0.0
01:01 12.5 11.1 91 1030.4 0.7 N 2.2 0.0 0.0
01:02 12.5 11.1 91 1030.2 0.7 N 2.2 0.0 0.0
01:04 12.5 11.1 91 1030.1 0.7 N 2.2 0.0 0.0
01:05 12.5 11.1 91 1030.3 0.7 N 2.2 0.0 0.0
01:06 12.6 11.2 91 1030.1 1.6 E 2.2 0.0 0.0
01:07 12.6 11.2 91 1030.0 0.7 E 2.2 0.0 0.0
01:08 12.6 11.2 91 1030.0 0.7 E 2.2 0.0 0.0
01:09 12.6 11.2 91 1030.2 0.0 W 1.6 0.0 0.0
01:10 12.5 11.1 91 1030.4 0.7 NE 1.6 0.0 0.0
01:11 12.5 11.1 91 1030.0 1.6 NE 1.6 0.0 0.0
01:12 12.4 11.5 94 1030.1 3.1 E 3.1 0.0 0.0
01:13 12.4 11.5 94 1030.1 0.7 E 3.1 0.0 0.0
01:14 12.4 11.5 94 1030.1 0.7 E 3.1 0.0 0.0
01:15 12.4 11.5 94 1030.3 1.6 N 3.1 0.0 0.0
01:16 12.4 11.5 94 1030.2 0.7 N 3.1 0.0 0.0
01:18 12.3 11.4 94 1030.1 0.0 NE 3.1 0.0 0.0
01:19 12.3 11.4 94 1030.2 0.0 NE 3.1 0.0 0.0
01:20 12.3 11.4 94 1030.4 0.0 NE 3.1 0.0 0.0
01:21 12.2 11.3 94 1030.1 0.0 NE 3.1 0.0 0.0
01:22 12.2 11.3 94 1030.0 0.7 NE 3.1 0.0 0.0
01:23 12.2 11.3 94 1030.1 0.0 NE 1.6 0.0 0.0
01:24 12.2 11.3 94 1030.2 0.0 NE 1.6 0.0 0.0
01:25 12.1 11.2 94 1030.0 0.0 NE 1.6 0.0 0.0
01:26 12.1 11.2 94 1030.3 0.0 NE 0.7 0.0 0.0
01:27 12.1 11.2 94 1030.4 0.0 NE 0.7 0.0 0.0
01:28 12.0 11.1 94 1030.0 1.6 E 1.6 0.0 0.0
01:29 12.0 11.1 94 1030.0 2.2 NE 2.2 0.0 0.0
01:30 12.1 11.2 94 1030.1 1.6 N 2.2 0.0 0.0
01:32 12.1 11.2 94 1030.2 0.0 N 2.2 0.0 0.0
01:33 12.1 11.2 94 1030.1 0.0 NE 2.2 0.0 0.0
01:34 12.1 11.2 94 1030.1 0.7 E 2.2 0.0 0.0
01:35 12.1 11.2 94 1030.3 2.2 N 2.2 0.0 0.0
01:36 12.1 11.2 94 1030.3 2.2 N 2.2 0.0 0.0
01:37 12.2 11.3 94 1030.2 0.7 NE 2.2 0.0 0.0
01:38 12.2 11.3 94 1030.1 0.7 N 2.2 0.0 0.0
01:39 12.2 11.3 94 1030.3 0.7 N 2.2 0.0 0.0
01:40 12.2 11.4 95 1030.1 0.7 N 2.2 0.0 0.0
01:41 12.3 11.5 95 1030.2 0.7 N 2.2 0.0 0.0
01:42 12.3 11.5 95 1030.2 1.6 NE 2.2 0.0 0.0
01:43 12.3 11.5 95 1030.0 1.6 NE 2.2 0.0 0.0
01:44 12.4 11.6 95 1030.1 1.6 NE 2.2 0.0 0.0
01:46 12.5 11.2 92 1030.0 0.7 NE 2.2 0.0 0.0
01:47 12.6 11.3 92 1030.0 1.6 NNE 1.6 0.0 0.0
01:48 12.6 11.3 92 1030.0 2.2 NE 2.2 0.0 0.0
01:49 12.6 11.3 92 1029.9 2.2 NE 2.2 0.0 0.0
01:50 12.7 11.4 92 1029.9 1.6 NE 2.2 0.0 0.1
01:51 12.7 11.4 92 1030.0 2.2 NE 2.2 0.8 0.1
01:52 12.7 11.4 92 1029.9 2.2 NE 2.2 0.8 0.1
01:53 12.8 11.5 92 1030.0 2.2 NE 2.2 0.8 0.1
01:54 12.9 11.6 92 1030.0 2.2 N 2.2 0.8 0.1
01:55 12.9 11.6 92 1030.1 2.2 NE 2.2 0.8 0.1
01:56 12.9 11.6 92 1029.9 2.2 N 2.2 0.0 0.1
01:57 13.0 11.7 92 1030.0 0.7 NE 2.2 0.0 0.1
01:58 13.0 11.9 93 1030.1 2.2 E 2.2 0.0 0.1
02:00 13.0 11.9 93 1030.1 2.2 E 2.2 0.0 0.1
02:01 13.0 11.9 93 1030.0 2.2 E 2.2 0.0 0.1
02:02 13.0 11.9 93 1029.9 1.6 NNE 2.2 0.0 0.1
02:03 13.0 11.9 93 1029.9 1.6 NNE 2.2 0.0 0.1
02:04 13.1 12.0 93 1029.9 0.7 N 2.2 0.0 0.1
02:05 13.1 12.0 93 1030.1 0.7 NE 2.2 0.0 0.1
02:06 13.1 12.0 93 1030.1 0.7 N 2.2 0.0 0.1
02:07 13.1 12.0 93 1029.9 0.7 N 2.2 0.0 0.1
02:08 13.1 12.0 93 1029.8 1.6 NE 2.2 0.0 0.1
02:09 13.1 12.0 93 1029.8 1.6 NE 2.2 0.0 0.1
02:10 13.0 11.9 93 1029.8 1.6 NE 2.2 0.0 0.1
02:11 13.0 11.9 93 1030.1 1.6 NE 1.6 0.0 0.1
02:12 13.0 11.9 93 1029.9 1.6 NE 1.6 0.0 0.1
02:14 13.0 11.9 93 1029.8 1.6 NE 1.6 0.0 0.1
02:15 13.0 11.9 93 1029.7 2.2 NE 2.2 0.0 0.1
02:16 13.0 11.9 93 1030.1 1.6 NE 2.2 0.0 0.1
02:17 13.0 11.9 93 1029.7 0.7 NE 2.2 0.0 0.1
02:18 13.0 11.9 93 1029.9 1.6 NE 2.2 0.0 0.1
02:19 13.0 11.9 93 1029.9 1.6 E 2.2 0.0 0.1
02:20 13.0 11.9 93 1029.9 1.6 NE 2.2 0.0 0.1
02:21 13.0 11.9 93 1030.2 0.7 NE 2.2 0.0 0.1
02:22 13.0 11.9 93 1030.2 0.7 N 2.2 0.0 0.1
02:23 13.0 11.9 93 1029.8 2.2 N 2.2 0.0 0.1
02:24 13.0 11.9 93 1030.1 1.6 NE 2.2 0.0 0.1
02:25 13.0 11.9 93 1029.8 1.6 NE 2.2 0.0 0.1
02:26 13.0 11.9 93 1029.7 0.7 NE 2.2 0.0 0.1
02:28 12.9 11.8 93 1029.7 0.7 N 2.2 0.0 0.1
02:29 12.9 11.8 93 1029.9 0.0 N 2.2 0.0 0.1
02:30 12.8 11.7 93 1030.0 2.2 NE 2.2 0.0 0.1
02:31 12.8 11.7 93 1030.0 2.2 NE 2.2 0.0 0.1
02:32 12.8 11.7 93 1030.0 2.2 NE 2.2 0.0 0.1
02:33 12.8 11.7 93 1029.9 0.7 NE 2.2 0.0 0.1
02:34 12.7 11.6 93 1029.8 0.7 NE 2.2 0.0 0.1
02:35 12.7 11.6 93 1029.9 0.7 NE 2.2 0.0 0.1
02:36 12.7 11.6 93 1029.8 0.7 E 2.2 0.0 0.1
02:37 12.7 11.6 93 1029.8 1.6 NE 2.2 0.0 0.1
02:38 12.7 11.6 93 1029.7 0.7 NE 2.2 0.0 0.1
02:39 12.7 11.6 93 1029.9 0.7 E 2.2 0.0 0.1
02:40 12.7 11.6 93 1029.7 0.0 N 2.2 0.0 0.1
02:42 12.6 11.5 93 1029.7 0.0 NE 1.6 0.0 0.1
02:43 12.6 11.5 93 1029.9 0.7 NE 1.6 0.0 0.1
02:44 12.5 11.4 93 1029.9 0.7 NE 1.6 0.0 0.1
02:45 12.5 11.4 93 1029.9 0.7 NE 1.6 0.0 0.1
02:46 12.5 11.4 93 1029.9 1.6 NE 1.6 0.0 0.1
02:47 12.4 11.8 96 1029.9 1.6 NE 1.6 0.0 0.1
02:48 12.4 11.8 96 1029.8 0.7 NE 1.6 0.0 0.1
02:49 12.4 11.8 96 1029.6 1.6 NE 1.6 0.0 0.1
02:50 12.4 11.8 96 1029.7 0.7 NE 1.6 0.0 0.1
02:51 12.4 11.8 96 1029.6 0.7 NE 1.6 0.0 0.1
02:52 12.4 11.8 96 1029.5 0.0 NE 1.6 0.0 0.1
02:53 12.4 11.8 96 1029.7 0.0 NE 1.6 0.0 0.1
02:54 12.4 11.8 96 1029.4 0.0 NE 1.6 0.0 0.1
02:56 12.4 11.8 96 1029.5 0.0 NE 1.6 0.0 0.1
02:57 12.3 11.7 96 1029.8 0.0 NE 1.6 0.0 0.1
02:58 12.3 11.7 96 1029.6 0.7 NE 1.6 0.0 0.1
02:59 12.2 11.6 96 1029.6 0.7 NE 0.7 0.0 0.1
03:00 12.2 11.6 96 1029.6 0.7 NE 0.7 0.0 0.1
03:01 12.2 11.6 96 1029.4 0.7 NE 0.7 0.0 0.1
03:02 12.2 11.6 96 1029.6 0.7 NE 0.7 0.0 0.1
03:03 12.2 11.6 96 1029.6 0.7 NE 0.7 0.0 0.1
03:04 12.2 11.6 96 1029.7 0.7 NE 0.7 0.0 0.1
03:05 12.2 11.6 96 1029.4 0.7 NE 0.7 0.0 0.1
03:06 12.2 11.6 96 1029.6 0.7 NE 0.7 0.0 0.1
03:07 12.1 11.5 96 1029.7 0.7 NE 0.7 0.0 0.1
03:09 12.1 11.5 96 1029.4 0.7 NE 0.7 0.0 0.1
03:10 12.1 11.5 96 1029.6 0.0 W 0.7 0.0 0.1
03:11 12.1 11.5 96 1029.5 0.0 W 0.7 0.0 0.1
03:12 12.0 11.4 96 1029.7 0.0 W 0.7 0.0 0.1
03:13 12.0 11.4 96 1029.6 0.0 W 0.7 0.0 0.1
03:14 11.9 11.3 96 1029.4 0.0 W 0.7 0.0 0.1
03:15 11.9 11.3 96 1029.3 0.0 W 0.7 0.0 0.1
03:16 11.8 11.2 96 1029.5 0.0 NE 0.7 0.0 0.1
03:17 11.8 11.2 96 1029.4 0.0 NE 0.7 0.0 0.1
03:18 11.8 11.2 96 1029.4 0.0 NE 0.7 0.0 0.1
03:19 11.8 11.2 96 1029.3 0.0 NE 0.7 0.0 0.1
03:20 11.7 11.1 96 1029.5 0.0 NE 0.0 0.0 0.1
03:21 11.7 11.1 96 1029.3 0.0 NE 0.0 0.0 0.1
03:22 11.7 11.1 96 1029.4 0.0 NE 0.0 0.0 0.1
03:24 11.7 11.1 96 1029.4 0.7 N 0.7 0.0 0.1
03:25 11.7 11.1 96 1029.3 0.0 N 0.7 0.0 0.1
03:26 11.7 11.1 96 1029.4 0.0 N 0.7 0.0 0.1
03:27 11.7 11.1 96 1029.4 0.0 N 0.7 0.0 0.1
03:28 11.7 11.1 96 1029.4 0.0 N 0.7 0.0 0.1
03:29 11.7 11.1 96 1029.4 0.0 N 0.7 0.0 0.1
03:30 11.7 11.1 96 1029.3 0.0 N 0.7 0.0 0.1
03:31 11.7 11.1 96 1029.2 0.0 N 0.7 0.0 0.1
03:32 11.7 11.1 96 1029.1 0.0 N 0.7 0.0 0.1
03:33 11.7 11.1 96 1029.1 0.0 N 0.7 0.0 0.1
03:34 11.7 11.1 96 1029.2 0.0 N 0.7 0.0 0.1
03:35 11.7 11.1 96 1029.0 0.0 N 0.7 0.0 0.1
03:36 11.6 11.0 96 1029.0 0.7 N 0.7 0.0 0.1
03:38 11.6 11.0 96 1029.0 0.7 NE 0.7 0.0 0.1
03:39 11.6 11.0 96 1029.0 0.7 NE 1.6 0.0 0.1
03:40 11.5 10.9 96 1029.0 1.6 NE 1.6 0.0 0.1
03:41 11.5 10.9 96 1029.0 1.6 N 1.6 0.0 0.1
03:42 11.5 10.9 96 1029.2 1.6 N 1.6 0.0 0.1
03:43 11.6 11.0 96 1029.1 2.2 NE 2.2 0.0 0.1
03:44 11.6 11.0 96 1029.2 2.2 N 2.2 0.0 0.1
03:45 11.7 11.1 96 1029.2 1.6 N 2.2 0.0 0.1
03:46 11.7 11.1 96 1028.9 1.6 N 2.2 0.0 0.1
03:47 11.7 11.1 96 1029.0 0.7 N 2.2 0.0 0.1
03:48 11.8 11.2 96 1029.1 0.0 N 2.2 0.0 0.1
03:49 11.8 11.2 96 1029.1 0.0 N 2.2 0.0 0.1
03:50 11.8 11.2 96 1029.1 1.6 N 2.2 0.0 0.1
03:52 11.8 11.2 96 1029.0 0.7 N 2.2 0.0 0.1
03:53 11.8 11.2 96 1029.1 0.7 NE 2.2 0.0 0.1
03:54 11.9 11.3 96 1029.3 0.7 NE 1.6 0.0 0.1
03:55 11.9 11.3 96 1029.1 2.2 NE 2.2 0.0 0.1
03:56 11.9 11.3 96 1029.1 2.2 NE 2.2 0.0 0.1
03:57 11.9 11.4 97 1029.0 2.2 E 2.2 0.0 0.1
03:58 12.0 11.5 97 1028.8 2.2 NE 2.2 0.0 0.1
03:59 12.0 11.5 97 1029.0 1.6 N 2.2 0.0 0.1
04:00 12.0 11.5 97 1028.8 2.2 N 2.2 0.0 0.1
04:01 12.0 11.5 97 1029.2 1.6 NE 2.2 0.0 0.1
04:02 12.1 11.6 97 1029.0 1.6 NE 2.2 0.0 0.1
04:03 12.1 11.6 97 1028.9 3.1 E 3.1 0.0 0.1
04:04 12.1 11.6 97 1028.9 2.2 NE 3.1 0.0 0.1
04:06 12.1 11.6 97 1028.9 1.6 NE 3.1 0.0 0.1
04:07 12.2 11.7 97 1029.1 0.7 N 3.1 0.0 0.1
04:08 12.2 11.7 97 1028.9 0.7 NW 3.1 0.0 0.1
04:09 12.1 11.6 97 1028.7 0.7 NE 3.1 0.0 0.1
04:10 12.1 11.6 97 1029.1 1.6 N 3.1 0.0 0.1
04:11 12.1 11.6 97 1028.8 1.6 NW 3.1 0.0 0.1
04:12 12.1 11.6 97 1028.9 0.7 NW 3.1 0.0 0.1
04:13 12.0 11.5 97 1028.9 0.7 N 3.1 0.0 0.1
04:14 12.0 11.5 97 1028.7 1.6 N 3.1 0.0 0.1
04:15 11.9 11.4 97 1029.1 1.6 NW 2.2 0.0 0.1
04:16 11.8 11.3 97 1028.9 0.7 NW 1.6 0.0 0.1
04:17 11.8 11.3 97 1028.8 1.6 N 1.6 0.0 0.1
04:18 11.7 11.1 96 1028.7 0.7 N 1.6 0.0 0.1
04:20 11.6 11.0 96 1028.7 0.7 NE 1.6 0.0 0.1
04:21 11.5 10.9 96 1028.7 0.0 NE 1.6 0.0 0.1
04:22 11.5 10.9 96 1028.9 0.0 NE 1.6 0.0 0.1
04:23 11.5 10.9 96 1028.7 1.6 N 1.6 0.0 0.1
04:24 11.5 10.9 96 1028.7 1.6 N 1.6 0.0 0.1
04:25 11.5 10.9 96 1028.7 0.7 E 1.6 0.0 0.1
04:26 11.5 10.9 96 1028.6 1.6 N 1.6 0.0 0.1
04:27 11.5 10.9 96 1028.9 0.7 N 1.6 0.0 0.1
04:28 11.5 10.9 96 1029.0 0.7 N 1.6 0.0 0.1
04:29 11.5 10.9 96 1028.7 0.0 N 1.6 0.0 0.1
04:30 11.4 10.8 96 1028.8 0.0 N 1.6 0.0 0.1
04:31 11.4 10.8 96 1028.9 0.0 N 1.6 0.0 0.1
04:32 11.3 10.7 96 1028.7 0.7 N 1.6 0.0 0.1
04:34 11.3 10.7 96 1028.8 1.6 NE 1.6 0.0 0.1
04:35 11.3 10.7 96 1028.6 0.7 N 1.6 0.0 0.1
04:36 11.4 10.8 96 1028.8 0.7 N 1.6 0.0 0.1
04:37 11.4 10.8 96 1028.7 0.7 NE 1.6 0.0 0.1
04:38 11.4 10.8 96 1028.7 0.7 NE 1.6 0.0 0.1
04:39 11.4 10.8 96 1028.8 0.7 NE 1.6 0.0 0.1
04:40 11.5 10.9 96 1028.6 0.7 N 1.6 0.0 0.1
04:41 11.5 10.9 96 1028.7 0.7 N 1.6 0.0 0.1
04:42 11.5 10.9 96 1028.6 0.7 N 1.6 0.0 0.1
04:43 11.5 11.0 97 1028.6 0.0 N 1.6 0.0 0.1
04:44 11.5 11.0 97 1028.6 0.0 N 1.6 0.0 0.1
04:45 11.5 11.0 97 1028.7 0.7 N 0.7 0.0 0.1
04:46 11.5 11.0 97 1028.5 0.0 N 0.7 0.0 0.1
04:47 11.5 11.0 97 1028.6 0.7 N 0.7 0.0 0.1
04:49 11.5 11.0 97 1028.6 0.0 N 0.7 0.0 0.1
04:50 11.5 11.0 97 1028.8 0.0 N 0.7 0.0 0.1
04:51 11.5 11.0 97 1028.5 0.0 N 0.7 0.0 0.1
04:52 11.5 11.0 97 1028.6 0.7 N 0.7 0.0 0.1
04:53 11.5 11.0 97 1028.7 1.6 N 1.6 0.0 0.1
04:54 11.5 11.0 97 1028.8 0.7 N 1.6 0.0 0.1
04:55 11.5 11.0 97 1028.6 0.0 N 1.6 0.0 0.1
04:56 11.5 11.0 97 1028.8 0.7 NW 1.6 0.0 0.1
04:57 11.5 11.0 97 1028.6 0.7 N 1.6 0.0 0.1
04:58 11.5 11.0 97 1028.6 2.2 NW 2.2 0.0 0.1
04:59 11.6 11.1 97 1028.7 2.2 N 2.2 0.0 0.1
05:00 11.6 11.1 97 1028.7 2.2 N 2.2 0.0 0.1
05:01 11.6 11.1 97 1028.9 2.2 N 2.2 0.0 0.1
05:02 11.6 11.1 97 1028.9 2.2 N 2.2 0.0 0.1
05:04 11.6 11.1 97 1028.6 2.2 N 2.2 0.0 0.1
05:05 11.7 11.2 97 1028.8 3.1 N 3.1 0.0 0.1
05:06 11.8 11.3 97 1028.7 1.6 N 3.1 0.0 0.1
05:07 11.8 11.3 97 1028.7 0.7 N 3.1 0.0 0.1
05:08 11.8 11.3 97 1028.7 0.7 N 3.1 0.0 0.1
05:09 11.9 11.4 97 1028.7 1.6 N 3.1 0.0 0.1
05:10 11.9 11.4 97 1028.6 1.6 N 3.1 0.0 0.1
05:11 11.9 11.4 97 1028.7 0.7 N 3.1 0.0 0.1
05:12 11.9 11.6 98 1028.6 0.7 N 3.1 0.0 0.1
05:13 12.0 11.7 98 1028.7 1.6 N 3.1 0.0 0.1
05:14 12.0 11.7 98 1028.6 1.6 N 3.1 0.0 0.1
05:16 12.0 11.7 98 1028.8 1.6 NW 1.6 0.0 0.1
05:18 12.0 11.7 98 1028.7 2.2 N 2.2 0.0 0.1
05:19 12.0 11.7 98 1028.6 1.6 N 2.2 0.0 0.1
05:20 12.0 11.7 98 1028.7 1.6 N 2.2 0.0 0.1
05:21 12.1 11.8 98 1028.7 1.6 NW 2.2 0.0 0.1
05:22 12.1 11.8 98 1028.7 1.6 N 2.2 0.0 0.1
05:23 12.1 11.8 98 1028.6 1.6 NE 2.2 0.0 0.1
05:24 12.1 11.8 98 1028.7 2.2 N 2.2 0.0 0.1
05:25 12.1 11.8 98 1028.5 2.2 N 2.2 0.0 0.1
05:26 12.1 11.8 98 1028.8 2.2 N 2.2 0.0 0.1
05:27 12.1 11.8 98 1028.5 3.1 N 3.1 0.0 0.1
05:28 12.1 11.8 98 1028.7 2.2 N 3.1 0.0 0.1
05:29 12.1 11.8 98 1028.7 3.1 N 3.1 0.0 0.1
05:30 12.2 11.9 98 1028.8 2.2 NE 3.1 0.0 0.1
05:31 12.2 11.9 98 1028.6 3.1 NW 3.1 0.0 0.1
05:33 12.2 11.9 98 1028.6 3.1 NE 3.1 0.0 0.1
05:34 12.2 11.9 98 1028.7 2.2 NW 3.1 0.0 0.1
05:35 12.2 11.9 98 1028.5 2.2 NW 3.1 0.0 0.1
05:36 12.2 11.9 98 1028.5 2.2 NW 3.1 0.0 0.1
05:37 12.3 12.0 98 1028.7 3.8 N 3.8 0.0 0.1
05:38 12.3 12.0 98 1028.7 2.2 NE 3.8 0.0 0.1
05:39 12.3 12.0 98 1028.6 2.2 N 3.8 0.0 0.1
05:40 12.3 12.2 99 1028.6 1.6 N 3.8 0.0 0.1
05:41 12.3 12.2 99 1028.7 1.6 NE 3.8 0.0 0.1
05:42 12.4 12.3 99 1028.7 2.2 N 3.8 0.0 0.1
05:43 12.4 12.3 99 1028.5 1.6 N 3.8 0.0 0.1
05:44 12.4 12.3 99 1028.7 1.6 W 3.8 0.0 0.1
05:45 12.4 12.3 99 1028.8 1.6 NE 3.8 0.0 0.1
05:47 12.4 12.3 99 1028.7 2.2 N 3.1 0.0 0.1
05:48 12.4 12.3 99 1028.6 1.6 N 3.1 0.0 0.1
05:49 12.4 12.3 99 1028.6 1.6 N 3.1 0.0 0.1
05:50 12.4 12.3 99 1028.7 0.7 NE 3.1 0.0 0.1
05:51 12.4 12.3 99 1028.6 1.6 NE 2.2 0.0 0.1
05:52 12.4 12.3 99 1028.7 1.6 NE 2.2 0.0 0.1
05:53 12.4 12.3 99 1028.7 0.7 N 2.2 0.0 0.1
05:54 12.4 12.3 99 1028.7 0.7 N 2.2 0.0 0.1
05:55 12.4 12.3 99 1028.5 1.6 N 2.2 0.0 0.1
05:56 12.4 12.3 99 1028.6 1.6 N 2.2 0.0 0.1
05:57 12.4 12.3 99 1028.5 0.7 N 2.2 0.0 0.1
05:58 12.4 12.3 99 1028.6 0.0 N 1.6 0.0 0.1
05:59 12.4 12.3 99 1028.6 0.7 N 1.6 0.0 0.1
06:01 12.4 12.3 99 1028.7 0.7 N 1.6 0.0 0.1
06:02 12.4 12.3 99 1028.8 0.7 N 1.6 0.0 0.1
06:03 12.4 12.3 99 1028.6 0.7 N 1.6 0.0 0.1
06:04 12.4 12.3 99 1028.6 0.7 N 1.6 0.0 0.1
06:05 12.4 12.3 99 1028.7 0.7 N 1.6 0.0 0.1
06:06 12.4 12.3 99 1028.5 0.7 N 1.6 0.0 0.1
06:07 12.3 12.2 99 1028.7 1.6 N 1.6 0.0 0.1
06:08 12.3 12.2 99 1028.6 2.2 NW 2.2 0.0 0.1
06:09 12.3 12.2 99 1028.6 1.6 N 2.2 0.0 0.1
06:10 12.3 12.2 99 1028.5 1.6 N 2.2 0.0 0.1
06:11 12.3 12.2 99 1028.5 0.7 N 2.2 0.0 0.1
06:12 12.3 12.2 99 1028.5 1.6 NW 2.2 0.0 0.1
06:13 12.3 12.2 99 1028.5 2.2 NE 2.2 0.0 0.1
06:15 12.3 12.2 99 1028.5 3.1 NE 3.8 0.0 0.1
06:16 12.3 12.2 99 1028.5 2.2 NW 3.8 0.0 0.1
06:17 12.3 12.2 99 1028.6 3.1 N 3.8 0.0 0.1
06:18 12.3 12.2 99 1028.6 3.1 NW 3.8 0.0 0.1
06:19 12.3 12.2 99 1028.5 3.1 N 3.8 0.0 0.1
06:20 12.3 12.2 99 1028.6 3.1 N 3.8 0.0 0.1
06:21 12.3 12.2 99 1028.7 3.1 NW 3.8 0.0 0.1
06:22 12.3 12.2 99 1028.6 2.2 N 3.8 0.0 0.1
06:23 12.3 12.2 99 1028.5 3.1 NW 3.8 0.0 0.1
06:24 12.3 12.2 99 1028.6 3.8 NW 3.8 0.0 0.1
06:25 12.3 12.2 99 1028.6 3.8 N 3.8 0.0 0.1
06:26 12.3 12.2 99 1028.5 3.8 NE 3.8 0.0 0.1
06:27 12.3 12.2 99 1028.6 2.2 NE 3.8 0.0 0.1
06:29 12.3 12.2 99 1028.7 1.6 N 3.8 0.0 0.1
06:30 12.3 12.2 99 1028.6 2.2 N 3.8 0.0 0.1
06:31 12.4 12.3 99 1028.8 2.2 NNE 3.8 0.0 0.1
06:32 12.4 12.3 99 1028.7 3.1 NW 3.8 0.0 0.1
06:33 12.4 12.3 99 1028.8 3.1 NW 3.8 0.0 0.1
06:34 12.4 12.3 99 1028.5 2.2 N 3.8 0.0 0.1
06:35 12.4 12.3 99 1028.4 2.2 NW 3.8 0.0 0.1
06:36 12.4 12.3 99 1028.7 0.7 N 3.8 0.0 0.1
06:37 12.4 12.3 99 1028.3 1.6 NW 3.1 0.0 0.1
06:38 12.4 12.3 99 1028.6 2.2 N 3.1 0.0 0.1
06:39 12.4 12.3 99 1028.4 2.2 NE 3.1 0.0 0.1
06:40 12.4 12.3 99 1028.5 2.2 N 3.1 0.0 0.1
06:41 12.4 12.3 99 1028.7 1.6 NE 3.1 0.0 0.1
06:42 12.5 11.7 95 1028.4 1.6 NE 3.1 0.0 0.1
06:44 12.5 11.7 95 1028.7 2.2 N 2.2 0.0 0.1
06:45 12.5 11.7 95 1028.5 0.7 N 2.2 0.0 0.1
06:46 12.5 11.7 95 1028.5 0.7 N 2.2 0.0 0.1
06:47 12.5 11.7 95 1028.4 0.7 N 2.2 0.0 0.1
06:48 12.5 11.7 95 1028.5 1.6 N 2.2 0.0 0.1
06:49 12.5 11.7 95 1028.6 1.6 N 2.2 0.0 0.1
06:50 12.5 11.7 95 1028.5 1.6 NE 2.2 0.0 0.1
06:51 12.5 11.7 95 1028.6 1.6 E 2.2 0.0 0.1
06:52 12.5 11.7 95 1028.5 2.2 E 2.2 0.0 0.1
06:53 12.5 11.7 95 1028.5 1.6 WNW 2.2 0.0 0.1
06:54 12.5 11.7 95 1028.5 1.6 N 2.2 0.0 0.1
06:55 12.5 11.7 95 1028.5 0.7 NE 2.2 0.0 0.1
06:56 12.5 11.7 95 1028.8 0.7 NE 2.2 0.0 0.1
06:57 12.6 11.8 95 1028.8 1.6 N 2.2 0.0 0.1
06:59 12.6 12.0 96 1028.6 1.6 NE 2.2 0.0 0.1
07:00 12.6 12.0 96 1028.7 1.6 NE 2.2 0.0 0.1
07:01 12.6 12.0 96 1028.5 1.6 NE 2.2 0.0 0.1
07:02 12.6 12.0 96 1028.5 1.6 NE 2.2 0.0 0.1
07:03 12.6 12.0 96 1028.7 1.6 NE 2.2 0.0 0.1
07:04 12.6 12.0 96 1028.7 1.6 NE 2.2 0.0 0.1
07:05 12.6 12.0 96 1028.6 1.6 NE 2.2 0.0 0.1
07:06 12.6 12.0 96 1028.6 1.6 NE 2.2 0.0 0.1
07:07 12.8 12.2 96 1028.6 1.6 NW 2.2 0.8 0.1
07:08 12.8 12.2 96 1028.4 3.1 N 3.1 0.8 0.1
07:09 12.8 12.2 96 1028.6 2.2 N 3.1 0.8 0.1
07:10 12.9 12.3 96 1028.5 3.1 NE 3.1 0.8 0.1
07:11 12.9 12.3 96 1028.7 3.1 E 3.1 0.8 0.1
07:12 12.9 12.3 96 1028.5 3.1 NW 3.1 0.0 0.1
07:13 12.9 12.3 96 1028.5 3.1 NE 3.1 0.0 0.1
07:15 13.0 12.4 96 1028.7 2.2 N 3.1 0.0 0.1
07:16 13.0 12.4 96 1028.8 2.2 N 3.1 0.0 0.1
07:17 13.0 12.4 96 1028.7 0.7 NE 3.1 0.0 0.1
07:18 13.0 12.4 96 1028.5 1.6 N 3.1 0.0 0.1
07:19 13.0 12.4 96 1028.5 1.6 N 3.1 0.0 0.1
07:20 13.0 12.4 96 1028.6 1.6 N 3.1 0.0 0.1
07:21 13.0 12.4 96 1028.5 1.6 NE 3.1 0.0 0.1
07:22 13.1 12.5 96 1028.7 2.2 N 3.1 0.0 0.1
07:23 13.1 12.5 96 1028.5 2.2 N 3.1 0.0 0.1
07:24 13.1 12.6 97 1028.7 2.2 N 3.1 0.0 0.1
07:25 13.1 12.6 97 1028.6 2.2 NW 2.2 0.0 0.1
07:26 13.1 12.6 97 1028.6 1.6 NE 2.2 0.0 0.1
07:27 13.1 12.6 97 1028.5 2.2 N 2.2 0.0 0.1
07:28 13.1 12.6 97 1028.5 2.2 N 2.2 0.0 0.1
07:30 13.1 12.6 97 1028.7 2.2 N 2.2 0.0 0.1
07:31 13.2 12.7 97 1028.7 3.1 NW 3.1 0.0 0.1
07:32 13.2 12.7 97 1028.7 1.6 N 3.1 0.0 0.1
07:33 13.2 12.7 97 1028.8 1.6 N 3.1 0.0 0.1
07:34 13.2 12.7 97 1028.8 1.6 N 3.1 0.0 0.1
07:35 13.2 12.7 97 1028.6 2.2 N 3.1 0.0 0.1
07:36 13.2 12.7 97 1028.7 1.6 NE 3.1 0.0 0.1
07:37 13.2 12.7 97 1028.9 1.6 W 3.1 0.0 0.1
07:38 13.2 12.7 97 1028.5 1.6 W 3.1 0.0 0.1
07:39 13.2 12.7 97 1028.7 2.2 N 3.1 0.0 0.1
07:40 13.2 12.7 97 1028.6 1.6 N 3.1 0.0 0.1
07:41 13.3 12.8 97 1028.7 0.7 NNW 3.1 0.0 0.1
07:42 13.3 12.8 97 1028.8 2.2 N 2.2 0.0 0.1
07:43 13.3 12.8 97 1028.8 2.2 NE 2.2 0.0 0.1
07:45 13.3 12.8 97 1028.7 1.6 N 2.2 0.0 0.1
07:46 13.3 12.8 97 1028.7 1.6 N 2.2 0.0 0.1
07:47 13.3 12.8 97 1028.6 0.7 NE 2.2 0.0 0.1
07:48 13.3 12.8 97 1028.7 0.7 NE 2.2 0.0 0.1
07:49 13.3 12.8 97 1028.6 0.7 NE 2.2 0.0 0.1
07:50 13.3 12.8 97 1028.8 0.7 NE 2.2 0.0 0.1
07:51 13.3 12.8 97 1029.0 1.6 N 2.2 0.0 0.1
07:52 13.3 12.8 97 1028.7 1.6 NE 2.2 0.0 0.1
07:53 13.3 12.8 97 1028.8 0.7 NE 2.2 0.0 0.1
07:54 13.3 12.8 97 1028.7 0.7 N 1.6 0.0 0.1
07:55 13.3 12.8 97 1028.5 0.7 N 1.6 0.0 0.1
07:56 13.3 12.8 97 1028.8 0.7 N 1.6 0.0 0.1
07:57 13.3 12.8 97 1028.8 1.6 E 1.6 0.0 0.1
07:58 13.3 12.8 97 1028.9 1.6 E 1.6 0.0 0.1
08:00 13.3 12.8 97 1028.9 0.7 NE 1.6 0.0 0.1
08:01 13.3 12.8 97 1028.8 0.7 NE 1.6 0.0 0.1
08:02 13.3 12.8 97 1028.9 0.7 NE 1.6 0.0 0.1
08:03 13.3 12.8 97 1028.8 1.6 N 1.6 0.0 0.1
08:04 13.3 12.8 97 1028.8 1.6 N 1.6 0.0 0.1
08:05 13.3 12.8 97 1028.9 1.6 N 1.6 0.0 0.1
08:06 13.3 12.8 97 1028.9 0.7 N 1.6 0.0 0.1
08:07 13.3 12.8 97 1028.9 0.7 N 1.6 0.0 0.1
08:08 13.3 12.8 97 1028.8 0.0 N 1.6 0.0 0.1
08:09 13.3 12.8 97 1028.8 0.0 N 1.6 0.0 0.1
08:10 13.3 12.8 97 1028.9 0.0 N 1.6 0.0 0.1
08:11 13.3 12.8 97 1028.8 0.0 N 1.6 0.0 0.1
08:12 13.3 12.8 97 1028.5 0.0 N 1.6 0.0 0.1
08:13 13.3 12.8 97 1028.6 0.0 N 1.6 0.0 0.1
08:14 13.3 12.8 97 1028.8 0.0 N 1.6 0.0 0.1
08:16 13.3 12.8 97 1029.0 0.0 N 0.7 0.0 0.1
08:17 13.3 12.8 97 1028.8 0.0 N 0.0 0.0 0.1
08:18 13.3 12.8 97 1029.1 0.0 N 0.0 0.0 0.1
08:19 13.3 12.8 97 1028.8 0.0 N 0.0 0.0 0.1
08:20 13.3 12.8 97 1028.9 0.0 N 0.0 0.0 0.1
08:21 13.3 12.8 97 1028.9 0.7 NE 0.7 0.0 0.1
08:22 13.3 12.8 97 1028.8 1.6 N 1.6 0.0 0.1
08:23 13.3 12.8 97 1028.9 1.6 N 1.6 0.8 0.2
08:24 13.3 13.0 98 1028.9 0.7 N 1.6 0.8 0.2
08:25 13.3 13.0 98 1029.0 0.0 N 1.6 0.8 0.2
08:26 13.3 13.0 98 1029.0 0.0 N 1.6 0.8 0.2
08:27 13.3 13.0 98 1029.0 0.7 E 1.6 0.8 0.2
08:28 13.3 13.0 98 1029.1 1.6 NE 1.6 0.0 0.2
08:30 13.4 13.1 98 1028.8 0.7 N 1.6 0.0 0.2
08:31 13.4 13.1 98 1029.0 0.7 NE 1.6 0.0 0.2
08:32 13.4 13.1 98 1028.9 0.7 N 1.6 0.0 0.2
08:33 13.4 13.1 98 1028.9 0.7 NE 1.6 0.0 0.2
08:34 13.4 13.1 98 1029.2 1.6 NE 1.6 0.0 0.2
08:35 13.4 13.1 98 1028.8 1.6 NE 1.6 0.0 0.2
08:36 13.4 13.1 98 1029.0 0.7 NE 1.6 0.0 0.2
08:37 13.4 13.1 98 1029.1 0.0 NE 1.6 0.0 0.2
08:38 13.5 13.2 98 1029.1 0.0 NE 1.6 0.0 0.2
08:39 13.5 13.2 98 1029.3 1.6 NE 1.6 0.0 0.2
08:40 13.5 13.2 98 1029.2 1.6 NNE 1.6 0.0 0.2
08:41 13.6 13.3 98 1029.0 2.2 NE 2.2 0.0 0.2
08:42 13.6 13.3 98 1028.9 3.8 NE 3.8 0.0 0.2
08:43 13.7 13.4 98 1029.0 3.1 NE 3.8 0.0 0.2
08:45 13.7 13.4 98 1029.0 3.1 NE 3.8 0.0 0.2
08:46 13.8 13.5 98 1029.0 2.2 NE 3.8 0.0 0.2
08:47 13.8 13.5 98 1029.1 3.1 NE 3.8 0.0 0.2
08:48 13.8 13.5 98 1029.1 3.1 NE 3.8 0.0 0.2
08:49 13.9 13.6 98 1029.0 2.2 NE 3.8 0.0 0.2
08:50 13.9 13.6 98 1029.0 2.2 NE 3.8 0.0 0.2
08:51 14.0 13.9 99 1029.0 3.8 NE 3.8 0.0 0.2
08:52 14.0 13.9 99 1028.9 4.5 E 4.5 0.0 0.2
08:53 14.0 13.9 99 1029.0 3.8 NE 4.5 0.0 0.2
08:54 14.0 13.9 99 1029.0 3.8 N 4.5 0.0 0.2
08:55 14.1 14.0 99 1029.1 3.8 NE 4.5 0.0 0.2
08:56 14.1 14.0 99 1029.0 3.8 NE 4.5 0.0 0.2
08:57 14.2 14.1 99 1028.9 4.5 NE 4.5 0.0 0.2
08:58 14.2 14.1 99 1028.9 4.5 NE 4.5 0.0 0.2
08:59 14.2 14.1 99 1028.8 3.8 NNE 4.5 0.0 0.2
09:01 14.2 14.1 99 1029.1 3.8 NNE 4.5 0.0 0.2
09:02 14.2 14.1 99 1028.9 3.8 NNE 4.5 0.0 0.2
09:03 14.2 14.1 99 1028.9 3.8 NNE 4.5 0.0 0.2
09:04 14.2 14.1 99 1028.9 3.8 NNE 4.5 0.0 0.2
09:05 14.4 14.3 99 1029.0 4.5 NE 4.5 0.0 0.2
09:06 14.4 14.3 99 1028.8 5.4 E 5.4 0.0 0.2
09:07 14.4 14.3 99 1028.8 6.0 E 6.0 0.0 0.2
09:08 14.4 14.3 99 1028.8 6.0 NE 6.0 0.0 0.2
09:09 14.4 14.3 99 1028.8 3.1 NE 6.0 0.0 0.2
09:10 14.4 14.3 99 1028.9 3.8 N 6.0 0.0 0.2
09:11 14.4 14.3 99 1028.9 3.8 NE 6.0 0.0 0.2
09:12 14.4 14.3 99 1029.0 3.8 NE 6.0 0.0 0.2
09:13 14.5 14.4 99 1028.9 3.8 NE 6.0 0.0 0.2
09:15 14.5 14.4 99 1028.9 4.5 NE 6.0 0.0 0.2
09:16 14.5 14.4 99 1029.1 3.1 WNW 6.0 0.0 0.2
09:17 14.5 14.4 99 1028.8 3.1 NE 6.0 0.0 0.2
09:18 14.5 14.4 99 1029.2 4.5 NE 4.5 0.0 0.2
09:19 14.5 14.4 99 1029.0 3.8 N 4.5 0.0 0.2
09:20 14.5 14.4 99 1028.9 3.8 NE 4.5 0.0 0.2
09:21 14.5 14.4 99 1029.0 3.8 E 4.5 0.0 0.2
09:22 14.5 14.4 99 1029.1 6.0 E 6.0 0.0 0.2
09:23 14.6 14.5 99 1029.0 3.8 NE 6.0 0.0 0.2
09:24 14.6 14.5 99 1028.9 3.1 E 6.0 0.0 0.2
09:25 14.6 14.5 99 1029.0 3.8 NE 6.0 0.0 0.2
09:26 14.6 14.5 99 1028.9 3.8 E 6.0 0.0 0.2
09:27 14.6 14.5 99 1028.9 4.5 NE 6.0 0.0 0.2
09:29 14.6 14.5 99 1028.8 3.8 NE 6.0 0.0 0.2
09:30 14.6 14.5 99 1029.0 5.4 N 6.0 0.0 0.2
09:31 14.6 14.5 99 1029.1 4.5 E 6.0 0.0 0.2
09:32 14.6 14.5 99 1028.8 3.8 W 5.4 0.0 0.2
09:33 14.6 14.5 99 1029.0 3.8 NE 5.4 0.0 0.2
09:34 14.6 14.5 99 1029.0 4.5 E 5.4 0.0 0.2
09:35 14.6 14.5 99 1029.0 4.5 E 5.4 0.0 0.2
09:36 14.7 14.6 99 1029.1 3.8 E 5.4 0.0 0.2
09:37 14.7 14.6 99 1029.1 3.8 S 5.4 0.0 0.2
09:38 14.7 14.6 99 1029.1 4.5 E 5.4 0.0 0.2
09:39 14.7 14.6 99 1029.1 4.5 NW 5.4 0.0 0.2
09:40 14.7 14.6 99 1029.0 2.2 N 5.4 0.0 0.2
09:41 14.7 14.6 99 1028.8 3.8 NW 4.5 0.0 0.2
09:42 14.7 14.7 100 1029.1 2.2 E 4.5 0.0 0.2
09:43 14.8 14.8 100 1028.8 2.2 N 4.5 0.0 0.2
09:44 14.8 14.8 100 1028.9 3.1 N 4.5 0.0 0.2
09:45 14.8 14.8 100 1028.8 3.1 N 4.5 0.0 0.2
09:47 14.9 14.9 100 1028.8 3.1 NE 4.5 0.0 0.2
09:48 14.9 14.9 100 1028.7 3.1 NW 4.5 0.0 0.2
09:49 14.9 14.9 100 1028.9 3.1 NW 3.8 0.0 0.2
09:50 14.9 14.9 100 1029.0 3.8 NE 3.8 0.0 0.2
09:51 15.0 15.0 100 1029.1 4.5 NE 4.5 0.0 0.2
09:52 15.0 15.0 100 1029.1 4.5 NE 4.5 0.0 0.2
09:53 15.0 15.0 100 1029.0 2.2 N 4.5 0.0 0.2
09:54 15.0 15.0 100 1028.8 2.2 N 4.5 0.0 0.2
09:55 15.1 15.1 100 1028.8 3.1 NE 4.5 0.0 0.2
09:56 15.1 15.1 100 1029.1 4.5 NE 4.5 0.0 0.2
09:57 15.1 15.1 100 1028.9 3.8 E 4.5 0.0 0.2
09:58 15.1 15.1 100 1028.9 3.8 E 4.5 0.0 0.2
09:59 15.2 15.2 100 1029.0 3.1 NE 4.5 0.0 0.2
10:00 15.2 15.2 100 1028.7 3.1 NE 4.5 0.0 0.2
10:02 15.2 15.2 100 1029.0 3.1 NE 4.5 0.0 0.2
10:03 15.3 15.3 100 1029.0 4.5 NE 4.5 0.0 0.2
10:04 15.3 15.3 100 1028.9 3.8 NE 4.5 0.0 0.2
10:05 15.3 15.3 100 1029.0 3.8 NE 4.5 0.0 0.2
10:06 15.3 15.3 100 1029.2 5.4 E 5.4 0.0 0.2
10:07 15.3 15.3 100 1029.0 4.5 NE 5.4 0.0 0.2
10:08 15.4 15.4 100 1028.9 4.5 WNW 5.4 0.0 0.2
10:09 15.4 15.4 100 1029.0 3.1 N 5.4 0.0 0.2
10:10 15.4 15.4 100 1028.9 3.8 NE 5.4 0.0 0.2
10:11 15.4 15.4 100 1029.0 3.8 NE 5.4 0.0 0.2
10:12 15.5 15.5 100 1028.9 6.0 E 6.0 0.0 0.2
10:13 15.5 15.5 100 1028.8 3.8 NE 6.0 0.0 0.2
10:14 15.5 15.5 100 1029.1 3.8 NE 6.0 0.0 0.2
10:15 15.6 15.6 100 1028.9 4.5 N 6.9 0.0 0.2
10:16 15.6 15.6 100 1029.0 4.5 N 6.9 0.0 0.2
10:18 15.6 15.6 100 1029.1 4.5 NE 6.9 0.0 0.2
10:19 15.7 15.7 100 1028.8 4.5 E 6.9 0.0 0.2
10:20 15.7 15.7 100 1029.0 3.8 E 6.9 0.0 0.2
10:21 15.8 15.8 100 1029.1 4.5 E 6.9 0.0 0.2
10:22 15.8 15.8 100 1029.2 3.8 N 6.9 0.0 0.2
10:23 15.8 15.8 100 1029.0 3.8 N 6.9 0.0 0.2
10:24 15.8 15.8 100 1029.1 3.8 N 6.9 0.0 0.2
10:25 16.0 16.0 100 1029.0 3.1 NE 6.9 0.0 0.2
10:26 16.1 16.1 100 1029.2 3.1 NE 4.5 0.0 0.2
10:27 16.1 16.1 100 1029.3 3.1 NE 4.5 0.0 0.2
10:28 16.1 16.1 100 1029.2 3.1 NE 4.5 0.0 0.2
10:29 16.2 16.2 100 1029.1 3.8 NE 4.5 0.0 0.2
10:30 16.2 16.2 100 1029.2 3.8 NE 4.5 0.0 0.2
10:31 16.3 16.3 100 1029.1 3.8 NE 4.5 0.0 0.2
10:32 16.3 16.3 100 1029.2 4.5 N 4.5 0.0 0.2
10:33 16.4 16.4 100 1029.4 3.8 W 4.5 0.0 0.2
10:34 16.4 16.3 99 1029.0 1.6 N 4.5 0.0 0.2
10:35 16.4 16.3 99 1029.3 6.9 NE 6.9 0.0 0.2
10:37 16.5 16.4 99 1029.0 4.5 N 6.9 0.0 0.2
10:38 16.5 16.4 99 1029.1 6.9 NE 6.9 0.0 0.2
10:39 16.6 16.3 98 1029.0 3.8 N 6.9 0.0 0.2
10:40 16.7 16.4 98 1028.9 3.8 NE 6.9 0.0 0.2
10:41 16.7 16.2 97 1029.1 3.8 NW 6.9 0.0 0.2
10:42 16.7 16.2 97 1029.1 3.8 NW 6.9 0.0 0.2
10:43 16.8 16.2 96 1029.2 6.9 NE 6.9 0.0 0.2
10:44 16.8 16.2 96 1029.2 6.9 NE 6.9 0.0 0.2
10:45 17.0 15.9 93 1029.3 4.5 NE 6.9 0.0 0.2
10:46 17.1 15.8 92 1029.1 6.9 NE 6.9 0.0 0.2
10:47 17.1 15.8 92 1029.0 6.9 NE 6.9 0.0 0.2
10:48 17.2 15.4 89 1029.2 4.5 NE 6.9 0.0 0.2
10:49 17.2 15.4 89 1029.1 4.5 NE 6.9 0.0 0.2
10:51 17.4 15.0 86 1029.2 5.4 E 6.9 0.0 0.2
10:52 17.4 14.9 85 1029.2 5.4 NE 6.9 0.0 0.2
10:53 17.4 14.9 85 1029.0 5.4 NE 6.9 0.0 0.2
10:54 17.4 14.7 84 1029.0 8.3 SE 8.3 0.0 0.2
10:55 17.5 14.2 81 1029.0 3.8 N 8.3 0.0 0.2
10:56 17.5 14.0 80 1029.1 4.5 N 8.3 0.0 0.2
10:57 17.6 14.1 80 1029.1 5.4 NE 8.3 0.0 0.2
10:58 17.6 14.1 80 1029.2 7.6 E 8.3 0.0 0.2
10:59 17.6 13.9 79 1029.1 5.4 NE 8.3 0.0 0.2
11:00 17.6 13.9 79 1029.2 5.4 NE 8.3 0.0 0.2
11:01 17.6 13.9 79 1028.9 5.4 NE 8.3 0.0 0.2
11:02 17.6 13.9 79 1029.1 5.4 NE 8.3 0.0 0.2
11:03 17.6 13.9 79 1029.0 4.5 NE 8.3 0.0 0.2
11:04 17.6 13.9 79 1029.0 4.5 NE 7.6 0.0 0.2
11:06 17.6 13.9 79 1028.9 3.1 N 7.6 0.0 0.2
11:07 17.5 13.6 78 1029.0 3.1 E 7.6 0.0 0.2
11:08 17.5 13.6 78 1029.1 3.1 W 5.4 0.0 0.2
11:09 17.5 13.6 78 1028.9 4.5 NE 5.4 0.0 0.2
11:10 17.5 13.6 78 1029.1 5.4 N 5.4 0.0 0.2
11:11 17.5 13.6 78 1029.0 5.4 N 5.4 0.0 0.2
11:12 17.5 13.6 78 1029.1 5.4 N 5.4 0.0 0.2
11:13 17.5 13.6 78 1028.9 3.1 SW 5.4 0.0 0.2
11:14 17.5 13.6 78 1029.1 3.1 SW 5.4 0.0 0.2
11:15 17.5 13.6 78 1029.2 2.2 W 5.4 0.0 0.2
11:16 17.5 13.6 78 1029.1 2.2 W 5.4 0.0 0.2
11:17 17.5 13.6 78 1029.2 2.2 NW 5.4 0.0 0.2
11:18 17.5 13.6 78 1029.1 3.1 E 5.4 0.0 0.2
11:19 17.5 13.6 78 1029.0 3.1 E 5.4 0.0 0.2
11:20 17.5 13.6 78 1029.2 3.1 E 5.4 0.0 0.2
11:21 17.5 13.6 78 1029.0 2.2 NE 5.4 0.0 0.2
11:22 17.5 13.6 78 1028.8 2.2 NE 3.1 0.0 0.2
11:23 17.5 13.6 78 1028.9 2.2 NE 3.1 0.0 0.2
11:24 17.6 13.7 78 1029.0 1.6 WNW 3.1 0.0 0.2
11:25 17.6 13.7 78 1029.0 1.6 WNW 3.1 0.0 0.2
11:27 17.6 13.7 78 1029.1 3.1 N 3.1 0.0 0.2
11:28 17.6 13.7 78 1029.1 3.1 N 3.1 0.0 0.2
11:29 17.6 13.5 77 1029.1 2.2 W 3.1 0.0 0.2
11:30 17.6 13.5 77 1029.0 2.2 N 3.1 0.0 0.2
11:31 17.6 13.5 77 1028.8 3.8 N 3.8 0.0 0.2
11:32 17.5 13.4 77 1029.3 6.9 NE 6.9 0.0 0.2
11:33 17.5 13.4 77 1029.0 5.4 NW 6.9 0.0 0.2
11:34 17.5 13.4 77 1029.1 4.5 N 6.9 0.0 0.2
11:35 17.5 13.4 77 1028.9 4.5 NW 6.9 0.0 0.2
11:36 17.5 13.4 77 1029.1 4.5 NW 6.9 0.0 0.2
11:37 17.4 13.9 80 1028.8 3.8 NW 6.9 0.0 0.2
11:38 17.4 13.9 80 1029.0 4.5 N 6.9 0.0 0.2
11:39 17.4 13.9 80 1028.8 3.8 NW 6.9 0.0 0.2
11:41 17.4 13.9 80 1029.0 4.5 W 6.9 0.0 0.2
11:42 17.3 13.8 80 1028.9 3.8 N 5.4 0.0 0.2
11:43 17.3 13.8 80 1028.8 3.8 N 4.5 0.0 0.2
11:44 17.3 13.8 80 1028.7 3.1 NE 4.5 0.0 0.2
11:45 17.3 13.8 80 1028.8 3.8 E 4.5 0.0 0.2
11:46 17.3 13.8 80 1028.8 3.8 W 4.5 0.0 0.2
11:47 17.4 13.9 80 1029.1 3.8 NE 4.5 0.0 0.2
11:48 17.4 13.9 80 1028.8 3.1 E 4.5 0.0 0.2
11:49 17.4 13.9 80 1029.0 3.1 NE 4.5 0.0 0.2
11:50 17.4 13.9 80 1029.0 3.1 NE 4.5 0.0 0.2
11:51 17.4 13.7 79 1028.9 3.1 NE 4.5 0.0 0.2
11:52 17.4 13.7 79 1029.1 3.1 NE 3.8 0.0 0.2
11:53 17.4 13.7 79 1028.9 2.2 N 3.8 0.0 0.2
11:54 17.4 13.7 79 1028.8 2.2 N 3.8 0.0 0.2
11:55 17.5 13.2 76 1028.8 3.8 N 4.5 0.0 0.2
11:57 17.5 13.2 76 1028.6 3.1 NE 4.5 0.0 0.2
11:58 17.5 13.2 76 1028.8 3.1 NE 4.5 0.0 0.2
11:59 17.5 13.2 76 1028.9 4.5 NE 4.5 0.0 0.2
12:00 17.5 13.2 76 1028.8 4.5 NE 4.5 0.0 0.2
12:01 17.5 13.2 76 1028.8 4.5 NE 4.5 0.0 0.2
12:02 17.5 13.2 76 1028.8 4.5 NE 4.5 0.0 0.2
12:03 17.5 13.2 76 1028.8 4.5 NE 4.5 0.0 0.2
12:04 17.5 13.2 76 1028.7 4.5 NE 4.5 0.0 0.2
12:05 17.5 13.2 76 1028.7 4.5 NE 4.5 0.0 0.2
12:06 17.7 13.2 75 1028.8 3.1 N 4.5 0.0 0.2
12:07 17.7 13.2 75 1028.6 4.5 W 4.5 0.0 0.2
12:08 17.7 13.2 75 1028.7 3.1 NW 4.5 0.0 0.2
12:09 17.8 13.3 75 1028.7 3.8 E 4.5 0.0 0.2
12:10 17.8 13.3 75 1028.8 3.1 NW 4.5 0.0 0.2
12:12 17.8 13.3 75 1028.7 3.8 N 4.5 0.0 0.2
12:13 17.9 13.4 75 1028.5 3.1 NW 4.5 0.0 0.2
12:14 17.9 13.4 75 1028.6 3.8 N 4.5 0.0 0.2
12:15 17.9 13.4 75 1028.6 3.1 N 4.5 0.0 0.2
12:16 17.9 13.4 75 1028.6 3.1 N 4.5 0.0 0.2
12:17 17.9 13.4 75 1028.9 3.8 NW 4.5 0.0 0.2
12:18 17.9 13.2 74 1028.7 1.6 S 3.8 0.0 0.2
12:19 17.9 13.2 74 1028.8 2.2 NW 3.8 0.0 0.2
12:20 17.9 13.2 74 1028.9 2.2 NW 3.8 0.0 0.2
12:21 18.0 13.5 75 1028.8 2.2 NW 3.8 0.0 0.2
12:22 18.0 13.5 75 1028.8 3.1 W 3.8 0.0 0.2
12:23 18.1 13.6 75 1028.6 1.6 N 3.8 0.0 0.2
12:24 18.1 13.4 74 1028.7 1.6 N 3.8 0.0 0.2
12:26 18.1 13.4 74 1028.8 1.6 W 3.8 0.0 0.2
12:27 18.0 13.1 73 1028.7 3.1 W 3.8 0.0 0.2
12:28 18.0 13.1 73 1028.8 3.1 W 3.1 0.0 0.2
12:29 18.0 13.1 73 1028.6 3.8 NW 3.8 0.0 0.2
12:30 18.0 13.1 73 1028.6 3.8 NW 3.8 0.0 0.2
12:31 18.0 13.1 73 1028.7 2.2 NW 3.8 0.0 0.2
12:32 18.0 13.3 74 1028.7 3.8 N 3.8 0.0 0.2
12:33 18.1 13.4 74 1028.7 3.8 E 3.8 0.0 0.2
12:34 18.1 13.4 74 1028.8 3.1 N 3.8 0.0 0.2
12:35 18.1 13.4 74 1028.8 3.1 WNW 3.8 0.0 0.2
12:36 18.1 13.4 74 1028.7 3.8 NW 3.8 0.0 0.2
12:37 18.1 13.4 74 1028.8 3.1 NW 3.8 0.0 0.2
12:38 18.1 13.2 73 1028.9 2.2 W 3.8 0.0 0.2
12:39 18.0 13.1 73 1028.8 3.8 NE 3.8 0.0 0.2
12:41 18.0 13.1 73 1029.0 2.2 W 3.8 0.0 0.2
12:42 18.0 13.1 73 1028.7 2.2 W 3.8 0.0 0.2
12:43 18.0 13.1 73 1028.8 2.2 NW 3.8 0.0 0.2
12:44 18.0 13.1 73 1028.9 1.6 NE 3.8 0.0 0.2
12:45 18.0 13.1 73 1028.9 1.6 NE 3.8 0.0 0.2
12:46 17.9 13.0 73 1028.9 3.8 N 3.8 0.0 0.2
12:47 17.9 13.0 73 1028.9 3.1 N 3.8 0.0 0.2
12:48 17.9 13.0 73 1028.9 3.1 N 3.8 0.0 0.2
12:49 17.9 13.0 73 1028.6 3.1 N 3.8 0.0 0.2
12:50 17.9 13.0 73 1028.6 2.2 NE 3.8 0.0 0.2
12:51 17.8 12.9 73 1028.6 3.1 N 3.8 0.0 0.2
12:52 17.8 12.9 73 1028.5 5.4 NW 5.4 0.0 0.2
12:53 17.8 12.9 73 1028.8 3.1 NW 5.4 0.0 0.2
12:54 17.8 12.9 73 1028.8 3.8 N 5.4 0.0 0.2
12:56 17.8 12.9 73 1028.7 1.6 NE 5.4 0.0 0.2
12:57 17.8 12.9 73 1028.7 1.6 NE 5.4 0.0 0.2
12:58 17.8 13.1 74 1028.8 1.6 N 5.4 0.0 0.2
12:59 17.8 13.1 74 1028.6 2.2 NE 5.4 0.0 0.2
13:00 17.8 13.1 74 1028.7 2.2 NE 5.4 0.0 0.2
13:01 17.8 13.1 74 1028.7 2.2 NE 5.4 0.0 0.2
13:02 17.8 13.1 74 1028.7 2.2 NE 5.4 0.0 0.2
13:03 17.9 13.4 75 1028.6 3.1 SE 3.8 0.0 0.2
13:04 17.8 13.3 75 1028.5 3.1 S 3.8 0.0 0.2
13:05 17.8 13.3 75 1028.4 4.5 NE 4.5 0.0 0.2
13:06 17.8 13.5 76 1028.4 2.2 E 4.5 0.0 0.2
13:07 17.8 13.5 76 1028.4 1.6 N 4.5 0.0 0.2
13:08 17.8 13.5 76 1028.5 1.6 N 4.5 0.0 0.2
13:09 17.8 13.7 77 1028.5 0.7 NE 4.5 0.0 0.2
13:10 17.8 13.7 77 1028.4 0.7 N 4.5 0.0 0.2
13:11 17.8 13.9 78 1028.6 1.6 E 4.5 0.0 0.2
13:12 17.8 13.9 78 1028.5 2.2 SW 4.5 0.0 0.2
13:13 17.8 13.9 78 1028.4 3.1 SW 4.5 0.0 0.2
13:15 17.8 14.1 79 1028.5 3.8 S 4.5 0.0 0.2
13:16 17.7 14.0 79 1028.6 3.1 SW 3.8 0.0 0.2
13:17 17.8 14.1 79 1028.7 1.6 SW 3.8 0.0 0.2
13:18 17.8 14.1 79 1028.5 3.8 S 3.8 0.0 0.2
13:19 17.7 14.0 79 1028.6 3.1 SE 3.8 0.0 0.2
13:20 17.7 14.0 79 1028.6 2.2 W 3.8 0.0 0.2
13:22 17.7 14.0 79 1028.4 1.6 NW 3.8 0.0 0.2
13:23 17.7 14.0 79 1028.3 1.6 NW 3.8 0.0 0.2
13:24 17.8 14.1 79 1028.5 1.6 N 3.8 0.0 0.2
13:25 17.8 14.1 79 1028.5 1.6 N 3.8 0.0 0.2
13:26 17.8 14.1 79 1028.6 1.6 N 3.8 0.0 0.2
13:27 17.8 14.1 79 1028.4 1.6 NW 3.8 0.0 0.2
13:28 17.8 14.1 79 1028.5 1.6 NE 3.8 0.0 0.2
13:29 17.8 14.1 79 1028.2 1.6 NE 3.1 0.0 0.2
13:30 17.9 14.2 79 1028.6 0.7 S 3.1 0.0 0.2
13:31 17.8 14.1 79 1028.4 1.6 S 2.2 0.0 0.2
13:32 17.8 14.1 79 1028.3 1.6 N 2.2 0.0 0.2
13:33 17.9 14.2 79 1028.3 1.6 N 2.2 0.0 0.2
13:34 17.9 14.2 79 1028.3 3.1 S 5.4 0.0 0.2
13:35 17.9 14.2 79 1028.3 2.2 E 5.4 0.0 0.2
13:37 17.9 14.2 79 1028.4 1.6 NE 5.4 0.0 0.2
13:38 17.9 14.2 79 1028.4 1.6 NE 5.4 0.0 0.2
13:39 18.0 14.3 79 1028.4 3.1 NE 5.4 0.0 0.2
13:40 18.0 14.3 79 1028.4 2.2 S 5.4 0.0 0.2
13:41 18.0 14.3 79 1028.4 2.2 S 5.4 0.0 0.2
13:42 18.0 14.3 79 1028.2 3.1 NE 5.4 0.0 0.2
13:43 18.0 14.1 78 1028.4 2.2 E 5.4 0.0 0.2
13:44 18.1 14.2 78 1028.3 2.2 W 3.1 0.0 0.2
13:45 18.1 14.2 78 1028.4 1.6 W 3.1 0.0 0.2
13:46 18.1 14.0 77 1028.4 1.6 SW 3.1 0.0 0.2
13:47 18.1 14.0 77 1028.2 1.6 NE 3.1 0.0 0.2
13:48 18.1 14.0 77 1028.2 1.6 W 3.1 0.0 0.2
13:49 18.0 13.9 77 1028.4 1.6 NE 3.1 0.0 0.2
13:50 18.0 13.9 77 1028.4 1.6 NE 3.1 0.0 0.2
13:52 18.0 13.7 76 1028.4 1.6 NE 3.1 0.0 0.2
13:53 18.0 13.7 76 1028.3 2.2 E 2.2 0.0 0.2
13:54 18.0 13.7 76 1028.3 2.2 NE 2.2 0.0 0.2
13:55 18.0 13.7 76 1028.4 2.2 NE 3.1 0.0 0.2
13:56 18.0 13.7 76 1028.4 2.2 NE 3.1 0.0 0.2
13:57 18.0 13.7 76 1028.3 1.6 E 3.1 0.0 0.2
13:58 17.9 13.6 76 1028.4 0.7 W 3.1 0.0 0.2
13:59 17.9 13.6 76 1028.2 0.7 N 3.1 0.0 0.2
14:00 17.9 13.6 76 1028.5 1.6 S 3.1 0.0 0.2
14:01 17.9 13.6 76 1028.4 1.6 S 3.1 0.0 0.2
14:02 17.9 13.6 76 1028.4 1.6 S 3.1 0.0 0.2
14:03 17.9 13.6 76 1028.6 1.6 S 3.1 0.0 0.2
14:04 17.9 13.6 76 1028.4 1.6 S 3.1 0.0 0.2
14:05 17.8 13.7 77 1028.3 2.2 S 2.2 0.0 0.2
14:07 17.7 13.6 77 1028.2 2.2 S 2.2 0.0 0.2
14:08 17.7 13.6 77 1028.4 1.6 SW 2.2 0.0 0.2
14:09 17.6 13.5 77 1028.3 1.6 SE 2.2 0.0 0.2
14:10 17.6 13.5 77 1028.4 0.7 SW 2.2 0.0 0.2
14:11 17.6 13.5 77 1028.3 0.7 SW 2.2 0.0 0.2
14:12 17.6 13.5 77 1028.5 0.7 SW 2.2 0.0 0.2
14:13 17.6 13.5 77 1028.2 0.0 N 2.2 0.0 0.2
14:14 17.6 13.5 77 1028.2 0.7 NW 2.2 0.0 0.2
14:15 17.6 13.5 77 1028.3 1.6 NW 2.2 0.0 0.2
14:16 17.6 13.5 77 1028.4 1.6 NW 2.2 0.0 0.2
14:17 17.6 13.5 77 1028.3 1.6 NW 2.2 0.0 0.2
14:18 17.6 13.5 77 1028.2 0.0 W 2.2 0.0 0.2
14:19 17.6 13.5 77 1028.3 2.2 WNW 2.2 0.0 0.2
14:20 17.6 13.5 77 1028.1 2.2 WNW 2.2 0.0 0.2
14:21 17.5 13.2 76 1028.2 0.7 W 2.2 0.0 0.2
14:23 17.6 13.3 76 1028.0 1.6 N 2.2 0.0 0.2
14:24 17.6 13.3 76 1028.2 1.6 E 2.2 0.0 0.2
14:25 17.6 13.3 76 1028.2 1.6 NE 2.2 0.0 0.2
14:26 17.5 13.2 76 1027.9 0.7 NE 2.2 0.0 0.2
14:27 17.6 13.3 76 1028.1 0.7 SW 2.2 0.0 0.2
14:28 17.6 13.3 76 1028.1 0.7 SW 2.2 0.0 0.2
14:29 17.6 13.3 76 1028.0 1.6 NE 2.2 0.0 0.2
14:30 17.6 13.3 76 1028.2 0.7 W 2.2 0.0 0.2
14:31 17.6 13.3 76 1027.9 0.7 W 2.2 0.0 0.2
14:32 17.6 13.3 76 1028.0 0.7 W 1.6 0.0 0.2
14:33 17.7 13.4 76 1028.0 0.7 W 1.6 0.0 0.2
14:34 17.7 13.4 76 1027.9 1.6 SW 1.6 0.0 0.2
14:35 17.7 13.4 76 1028.0 1.6 SSW 1.6 0.0 0.2
14:36 17.6 13.3 76 1028.2 2.2 SW 2.2 0.0 0.2
14:37 17.6 13.3 76 1028.0 2.2 SW 2.2 0.0 0.2
14:39 17.6 13.3 76 1028.0 2.2 W 2.2 0.0 0.2
14:40 17.6 13.3 76 1027.9 3.1 SW 3.1 0.0 0.2
14:41 17.7 13.4 76 1027.9 2.2 SW 3.1 0.0 0.2
14:42 17.7 13.4 76 1027.8 3.1 SW 3.1 0.0 0.2
14:43 17.6 13.3 76 1027.9 3.8 SW 3.8 0.0 0.2
14:44 17.6 13.3 76 1028.0 3.8 SW 3.8 0.0 0.2
14:45 17.6 13.3 76 1027.8 3.8 SW 3.8 0.0 0.2
14:46 17.6 13.1 75 1027.8 2.2 W 3.8 0.0 0.2
14:47 17.6 13.1 75 1027.6 3.8 S 3.8 0.0 0.2
14:48 17.7 13.2 75 1027.7 3.1 S 3.8 0.0 0.2
14:49 17.7 13.2 75 1027.7 3.1 SW 3.8 0.0 0.2
14:50 17.7 13.4 76 1027.9 3.1 S 3.8 0.0 0.2
14:51 17.7 13.6 77 1027.8 4.5 W 4.5 0.0 0.2
14:52 17.8 13.7 77 1027.7 3.8 W 4.5 0.0 0.2
14:53 17.8 13.7 77 1027.7 3.8 W 4.5 0.0 0.2
14:55 17.9 13.6 76 1027.5 3.1 NW 4.5 0.0 0.2
14:56 18.0 13.7 76 1027.6 3.1 W 4.5 0.0 0.2
14:57 18.0 13.5 75 1027.7 3.1 N 4.5 0.0 0.2
14:58 18.0 13.5 75 1027.7 3.1 NE 4.5 0.0 0.2
14:59 18.1 13.4 74 1027.5 3.8 NW 4.5 0.0 0.2
15:00 18.1 13.4 74 1027.5 3.8 NW 4.5 0.0 0.2
15:01 18.1 13.4 74 1027.6 3.8 NW 4.5 0.0 0.2
15:02 18.1 13.4 74 1027.6 3.8 NW 4.5 0.0 0.2
15:03 18.1 13.4 74 1027.6 3.8 NW 3.8 0.0 0.2
15:04 18.1 13.4 74 1027.5 3.8 NW 3.8 0.0 0.2
15:05 18.1 13.4 74 1027.5 3.8 NW 3.8 0.0 0.2
15:06 18.2 13.1 72 1027.6 4.5 WNW 5.4 0.0 0.2
15:07 18.2 13.1 72 1027.6 4.5 N 5.4 0.0 0.2
15:08 18.2 13.1 72 1027.5 3.1 NW 5.4 0.0 0.2
15:09 18.2 13.1 72 1027.6 4.5 W 5.4 0.0 0.2
15:11 18.1 13.0 72 1027.6 5.4 N 6.0 0.0 0.2
15:12 18.1 13.0 72 1027.6 3.8 N 6.0 0.0 0.2
15:13 18.1 13.0 72 1027.8 2.2 NW 6.0 0.0 0.2
15:14 18.1 13.0 72 1027.6 3.1 NW 6.0 0.0 0.2
15:16 18.1 13.0 72 1027.7 5.4 N 6.0 0.0 0.2
15:17 18.1 13.0 72 1027.7 5.4 W 6.0 0.0 0.2
15:18 18.1 13.0 72 1027.5 4.5 W 6.0 0.0 0.2
15:19 18.0 12.9 72 1027.7 3.8 W 6.0 0.0 0.2
15:20 18.0 12.9 72 1027.5 3.1 N 5.4 0.0 0.2
15:21 18.0 12.9 72 1027.6 4.5 N 5.4 0.0 0.2
15:23 18.0 12.9 72 1027.6 2.2 W 5.4 0.0 0.2
15:24 18.0 12.9 72 1027.4 3.1 NW 5.4 0.0 0.2
15:25 18.0 12.9 72 1027.6 3.8 NE 5.4 0.0 0.2
15:26 18.0 12.9 72 1027.3 2.2 NE 5.4 0.0 0.2
15:27 18.0 12.9 72 1027.3 3.8 NW 5.4 0.0 0.2
15:28 18.0 12.9 72 1027.6 3.8 NW 4.5 0.0 0.2
15:29 18.0 12.9 72 1027.7 1.6 NW 4.5 0.0 0.2
15:30 18.0 12.9 72 1027.6 5.4 NE 5.4 0.0 0.2
15:31 18.0 12.9 72 1027.4 4.5 N 5.4 0.0 0.2
15:32 18.0 12.9 72 1027.5 4.5 NW 5.4 0.0 0.2
15:33 18.0 12.9 72 1027.5 2.2 NW 5.4 0.0 0.2
15:34 18.0 12.9 72 1027.3 3.1 WNW 5.4 0.0 0.2
15:35 18.1 13.0 72 1027.5 3.8 N 5.4 0.0 0.2
15:36 18.1 13.0 72 1027.5 3.8 NW 5.4 0.0 0.2
15:37 18.1 13.0 72 1027.4 3.8 NW 5.4 0.0 0.2
15:38 18.1 13.0 72 1027.5 4.5 NW 5.4 0.0 0.2
15:40 18.1 13.0 72 1027.6 5.4 N 5.4 0.0 0.2
15:41 18.1 13.0 72 1027.2 6.0 N 6.0 0.0 0.2
15:42 18.1 13.0 72 1027.3 6.0 NW 6.0 0.0 0.2
15:43 18.1 13.0 72 1027.4 3.1 N 6.0 0.0 0.2
15:44 18.1 13.0 72 1027.4 3.1 N 6.0 0.0 0.2
15:45 18.1 13.0 72 1027.4 3.8 N 6.0 0.0 0.2
15:46 18.1 13.0 72 1027.3 4.5 NW 6.0 0.0 0.2
15:47 18.1 13.0 72 1027.0 7.6 N 7.6 0.0 0.2
15:48 18.1 12.8 71 1027.0 6.0 N 7.6 0.0 0.2
15:49 18.1 12.8 71 1027.3 6.0 N 7.6 0.0 0.2
15:50 18.1 12.8 71 1027.1 6.0 N 7.6 0.0 0.2
15:51 18.2 13.1 72 1027.4 3.1 N 7.6 0.0 0.2
15:52 18.2 13.1 72 1027.2 3.8 NW 7.6 0.0 0.2
15:53 18.3 13.0 71 1027.2 6.0 N 7.6 0.0 0.2
15:54 18.3 13.0 71 1027.2 6.0 N 7.6 0.0 0.2
15:55 18.3 13.0 71 1027.0 6.0 N 7.6 0.0 0.2
15:57 18.4 13.1 71 1027.2 5.4 E 6.0 0.0 0.2
15:58 18.4 13.1 71 1027.1 4.5 SE 6.0 0.0 0.2
15:59 18.7 13.8 73 1027.1 3.1 W 6.0 0.0 0.2
16:00 18.7 13.8 73 1027.1 3.1 W 6.0 0.0 0.2
16:01 18.7 13.8 73 1027.3 3.1 W 6.0 0.0 0.2
16:02 18.7 13.8 73 1027.1 3.1 W 6.0 0.0 0.2
16:03 18.7 13.8 73 1027.0 3.1 W 6.0 0.0 0.2
16:04 18.7 13.8 73 1027.3 3.1 W 6.0 0.0 0.2
16:05 18.7 13.8 73 1027.1 3.1 W 6.0 0.0 0.2
16:06 19.4 13.8 70 1027.1 6.0 NW 6.0 0.0 0.2
16:07 19.3 13.7 70 1027.3 4.5 NW 6.0 0.0 0.2
16:08 19.3 13.7 70 1027.1 4.5 N 6.0 0.0 0.2
16:09 19.3 13.7 70 1027.2 4.5 NE 6.0 0.0 0.2
16:10 19.3 13.7 70 1027.3 2.2 NW 6.0 0.0 0.2
16:11 19.2 13.6 70 1027.0 5.4 W 6.0 0.0 0.2
16:12 19.1 13.5 70 1027.1 3.8 NW 6.0 0.0 0.2
16:13 19.1 13.5 70 1027.0 3.8 NW 6.0 0.0 0.2
16:14 19.0 13.4 70 1027.1 4.5 N 6.0 0.0 0.2
16:16 18.8 13.2 70 1027.1 5.4 NW 6.0 0.0 0.2
16:17 18.8 13.2 70 1027.2 5.4 N 6.0 0.0 0.2
16:18 18.7 13.1 70 1027.3 5.4 W 6.0 0.0 0.2
16:19 18.6 13.0 70 1027.1 3.8 NW 6.0 0.0 0.2
16:20 18.6 13.0 70 1027.1 3.8 NW 6.0 0.0 0.2
16:21 18.6 13.0 70 1027.1 5.4 NW 6.0 0.0 0.2
16:22 18.5 12.9 70 1027.2 6.9 NW 6.9 0.0 0.2
16:23 18.4 12.8 70 1027.1 4.5 NW 6.9 0.0 0.2
16:24 18.4 12.8 70 1027.0 6.0 W 6.9 0.0 0.2
16:25 18.3 12.7 70 1027.2 6.0 N 6.9 0.0 0.2
16:26 18.2 12.6 70 1027.1 4.5 NW 6.9 0.0 0.2
16:27 18.2 12.6 70 1027.1 4.5 W 6.9 0.0 0.2
16:28 18.2 12.6 70 1027.0 5.4 W 6.9 0.0 0.2
16:29 18.1 12.6 70 1027.0 5.4 N 6.9 0.0 0.2
16:30 18.1 12.6 70 1027.1 3.8 N 6.9 0.0 0.2
16:31 18.0 12.5 70 1027.3 3.8 N 6.9 0.0 0.2
16:32 18.0 12.5 70 1027.3 3.8 NW 6.9 0.0 0.2
16:34 17.9 12.4 70 1027.2 6.0 N 6.0 0.0 0.2
16:35 17.9 12.4 70 1027.2 4.5 E 6.0 0.0 0.2
16:36 17.9 12.4 70 1027.0 3.1 W 6.0 0.0 0.2
16:37 17.8 12.3 70 1027.0 3.1 NW 6.0 0.0 0.2
16:38 17.8 12.3 70 1027.2 3.8 W 6.0 0.0 0.2
16:39 17.8 12.3 70 1026.9 3.8 N 6.0 0.0 0.2
16:40 17.8 12.3 70 1027.1 6.9 NW 6.9 0.0 0.2
16:41 17.8 12.3 70 1027.0 3.1 W 6.9 0.0 0.2
16:42 17.8 12.5 71 1027.0 5.4 W 6.9 0.0 0.2
16:43 17.8 12.5 71 1027.2 3.1 NE 6.9 0.0 0.2
16:44 17.8 12.5 71 1027.1 3.8 NE 6.9 0.0 0.2
16:45 17.8 12.5 71 1026.9 3.1 N 6.9 0.0 0.2
16:46 17.9 12.6 71 1027.1 6.9 N 6.9 0.0 0.2
16:47 17.9 12.6 71 1027.0 6.0 NW 6.9 0.0 0.2
16:48 18.0 12.7 71 1026.9 3.1 N 6.9 0.0 0.2
16:49 18.0 12.5 70 1026.9 5.4 NW 6.9 0.0 0.2
16:50 18.0 12.5 70 1026.9 4.5 N 6.9 0.0 0.2
16:52 18.2 12.6 70 1026.7 6.0 W 6.9 0.0 0.2
16:53 18.3 12.7 70 1026.7 5.4 NW 6.9 0.0 0.2
16:54 18.4 12.8 70 1026.8 6.9 WNW 6.9 0.0 0.2
16:55 18.5 12.7 69 1026.8 7.6 NE 7.6 0.0 0.2
16:56 18.5 12.7 69 1026.9 7.6 NW 7.6 0.0 0.2
16:57 18.5 12.7 69 1026.9 7.6 NW 7.6 0.0 0.2
16:58 18.6 12.8 69 1027.0 4.5 N 7.6 0.0 0.2
16:59 18.7 12.9 69 1026.9 4.5 W 7.6 0.0 0.2
17:00 18.7 12.9 69 1026.8 4.5 NW 7.6 0.0 0.2
17:01 18.7 12.9 69 1026.9 4.5 NW 7.6 0.0 0.2
17:02 18.7 12.9 69 1026.9 4.5 NW 7.6 0.0 0.2
17:03 18.7 12.7 68 1027.0 4.5 W 7.6 0.0 0.2
17:04 18.7 12.7 68 1026.8 3.8 E 7.6 0.0 0.2
17:05 18.8 12.8 68 1026.6 6.0 N 7.6 0.0 0.2
17:06 19.0 13.2 69 1026.8 3.1 N 7.6 0.0 0.2
17:07 19.1 13.1 68 1026.7 5.4 E 6.0 0.0 0.2
17:08 19.2 13.2 68 1026.7 3.1 NE 6.0 0.0 0.2
17:09 19.3 13.3 68 1026.6 3.8 N 6.0 0.0 0.2
17:11 19.4 13.1 67 1026.7 3.8 W 6.0 0.0 0.2
17:12 19.5 13.0 66 1026.5 3.8 N 6.0 0.0 0.2
17:13 19.5 13.0 66 1026.6 2.2 NW 6.0 0.0 0.2
17:14 19.5 13.0 66 1026.6 5.4 N 6.0 0.0 0.2
17:15 19.6 13.1 66 1026.7 4.5 W 5.4 0.0 0.2
17:16 19.6 12.9 65 1026.8 6.0 W 6.0 0.0 0.2
17:18 19.6 12.9 65 1026.5 3.8 NW 6.0 0.0 0.2
17:19 19.6 12.6 64 1026.5 4.5 SW 6.0 0.0 0.2
17:20 19.5 12.5 64 1026.6 4.5 W 6.0 0.0 0.2
17:21 19.5 12.8 65 1026.5 6.0 NW 6.0 0.0 0.2
17:22 19.6 12.9 65 1026.5 6.0 W 6.0 0.0 0.2
17:23 19.6 12.6 64 1026.7 4.5 NW 6.0 0.0 0.2
17:24 19.6 12.6 64 1026.7 4.5 NW 6.0 0.0 0.2
17:25 19.6 12.6 64 1026.6 3.8 W 6.0 0.0 0.2
17:26 19.6 12.6 64 1026.6 6.9 N 6.9 0.0 0.2
17:27 19.6 12.6 64 1026.7 4.5 NW 6.9 0.0 0.2
17:28 19.6 12.6 64 1026.6 4.5 W 6.9 0.0 0.2
17:29 19.6 12.6 64 1026.6 6.9 N 6.9 0.0 0.2
17:30 19.6 12.6 64 1026.7 5.4 W 6.9 0.0 0.2
17:31 19.5 12.3 63 1026.7 6.0 W 6.9 0.0 0.2
17:32 19.4 12.2 63 1026.7 6.9 NW 6.9 0.0 0.2
17:33 19.4 12.2 63 1026.6 5.4 NW 6.9 0.0 0.2
17:34 19.4 12.2 63 1026.6 6.9 NW 6.9 0.0 0.2
17:36 19.4 12.4 64 1026.7 6.9 WNW 8.3 0.0 0.2
17:37 19.4 12.4 64 1026.5 6.0 NW 8.3 0.0 0.2
17:38 19.3 12.3 64 1026.7 7.6 N 8.3 0.0 0.2
17:39 19.3 12.3 64 1026.7 6.9 NW 8.3 0.0 0.2
17:40 19.3 12.3 64 1026.7 6.9 NW 8.3 0.0 0.2
17:41 19.3 12.3 64 1026.6 6.9 N 8.3 0.0 0.2
17:42 19.3 12.3 64 1026.6 6.0 WNW 8.3 0.0 0.2
17:43 19.3 12.3 64 1026.4 6.0 NW 8.3 0.0 0.2
17:44 19.3 12.3 64 1026.8 6.0 W 8.3 0.0 0.2
17:45 19.2 12.2 64 1026.6 6.9 W 8.3 0.0 0.2
17:46 19.2 12.2 64 1026.5 3.8 NW 8.3 0.0 0.2
17:47 19.2 12.2 64 1026.9 5.4 W 7.6 0.0 0.2
17:48 19.1 12.1 64 1026.7 6.0 NW 7.6 0.0 0.2
17:49 19.1 12.1 64 1026.8 6.0 W 7.6 0.0 0.2
17:50 19.1 12.1 64 1026.7 5.4 W 6.9 0.0 0.2
17:51 19.0 12.0 64 1026.6 5.4 NW 6.9 0.0 0.2
17:52 19.0 12.0 64 1026.5 5.4 W 6.9 0.0 0.2
17:54 18.9 12.0 64 1026.5 6.9 W 6.9 0.0 0.2
17:55 18.9 12.0 64 1026.6 5.4 W 6.9 0.0 0.2
17:56 18.8 11.9 64 1026.5 3.8 N 6.9 0.0 0.2
17:57 18.8 12.1 65 1026.7 5.4 NW 6.9 0.0 0.2
17:58 18.8 12.1 65 1026.5 6.0 NW 6.9 0.0 0.2
17:59 18.8 12.1 65 1026.3 5.4 NW 6.9 0.0 0.2
18:00 18.8 11.9 64 1026.5 7.6 W 7.6 0.0 0.2
18:01 18.8 11.9 64 1026.5 7.6 W 7.6 0.0 0.2
18:02 18.8 11.9 64 1026.5 7.6 W 7.6 0.0 0.2
18:03 18.7 11.8 64 1026.4 7.6 NW 7.6 0.0 0.2
18:04 18.7 11.8 64 1026.5 7.6 NE 7.6 0.0 0.2
18:05 18.7 11.8 64 1026.5 6.0 NW 7.6 0.0 0.2
18:06 18.6 11.7 64 1026.5 3.8 NW 7.6 0.0 0.2
18:07 18.6 11.7 64 1026.3 6.9 NW 7.6 0.0 0.2
18:08 18.5 11.6 64 1026.3 6.0 NW 7.6 0.0 0.2
18:09 18.4 11.5 64 1026.5 5.4 W 7.6 0.0 0.2
18:10 18.4 11.7 65 1026.4 5.4 SW 7.6 0.0 0.2
18:11 18.4 11.7 65 1026.3 4.5 E 7.6 0.0 0.2
18:13 18.3 11.6 65 1026.4 5.4 NW 7.6 0.0 0.2
18:14 18.3 11.6 65 1026.4 4.5 W 6.9 0.0 0.2
18:15 18.2 11.8 66 1026.6 4.5 NW 6.9 0.0 0.2
18:16 18.2 11.8 66 1026.3 4.5 NW 6.9 0.0 0.2
18:17 18.2 11.8 66 1026.4 3.1 NE 6.0 0.0 0.2
18:18 18.2 12.0 67 1026.4 3.8 N 6.0 0.0 0.2
18:19 18.2 12.0 67 1026.2 3.8 W 5.4 0.0 0.2
18:20 18.2 12.0 67 1026.4 3.1 E 5.4 0.0 0.2
18:21 18.2 12.0 67 1026.5 4.5 NW 5.4 0.0 0.2
18:22 18.1 11.9 67 1026.4 3.8 W 5.4 0.0 0.2
18:23 18.1 11.9 67 1026.3 3.1 W 5.4 0.0 0.2
18:24 18.1 11.9 67 1026.5 3.1 N 4.5 0.0 0.2
18:25 18.1 11.9 67 1026.5 4.5 N 4.5 0.0 0.2
18:26 18.0 11.8 67 1026.4 3.1 W 4.5 0.0 0.2
18:27 18.0 11.8 67 1026.4 2.2 W 4.5 0.0 0.2
18:28 18.0 12.0 68 1026.4 5.4 N 5.4 0.0 0.2
18:29 17.9 11.9 68 1026.4 2.2 W 5.4 0.0 0.2
18:30 17.9 11.9 68 1026.4 2.2 NW 5.4 0.0 0.2
18:32 17.8 11.8 68 1026.6 5.4 NW 5.4 0.0 0.2
18:33 17.8 11.8 68 1026.6 3.8 W 5.4 0.0 0.2
18:34 17.8 12.0 69 1026.2 2.2 N 5.4 0.0 0.2
18:35 17.7 11.9 69 1026.3 4.5 NW 5.4 0.0 0.2
18:36 17.7 11.9 69 1026.5 4.5 NE 5.4 0.0 0.2
18:37 17.7 11.9 69 1026.5 4.5 NE 5.4 0.0 0.2
18:38 17.6 11.9 69 1026.5 3.1 W 5.4 0.0 0.2
18:39 17.5 11.8 69 1026.5 4.5 NW 5.4 0.0 0.2
18:40 17.5 11.8 69 1026.6 3.8 N 5.4 0.0 0.2
18:41 17.4 12.1 71 1026.5 3.1 NW 5.4 0.0 0.2
18:42 17.4 12.1 71 1026.5 4.5 NW 5.4 0.0 0.2
18:43 17.4 12.1 71 1026.4 4.5 NW 4.5 0.0 0.2
18:44 17.3 12.0 71 1026.2 2.2 N 4.5 0.0 0.2
18:45 17.3 12.0 71 1026.3 2.2 NW 4.5 0.0 0.2
18:46 17.2 11.9 71 1026.6 2.2 NW 4.5 0.0 0.2
18:47 17.2 11.9 71 1026.3 2.2 W 4.5 0.0 0.2
18:48 17.2 11.9 71 1026.5 1.6 NW 4.5 0.0 0.2
18:49 17.1 11.8 71 1026.4 2.2 NW 4.5 0.0 0.2
18:51 17.0 11.7 71 1026.5 2.2 NW 4.5 0.0 0.2
18:52 16.9 11.8 72 1026.5 2.2 NW 4.5 0.0 0.2
18:53 16.9 11.8 72 1026.6 2.2 E 3.1 0.0 0.2
18:54 16.8 11.7 72 1026.3 3.8 W 3.8 0.0 0.2
18:55 16.7 11.6 72 1026.6 2.2 N 3.8 0.0 0.2
18:56 16.7 11.6 72 1026.6 2.2 N 3.8 0.0 0.2
18:57 16.7 11.6 72 1026.5 2.2 N 3.8 0.0 0.2
18:58 16.6 11.7 73 1026.3 1.6 N 3.8 0.0 0.2
18:59 16.6 11.7 73 1026.4 1.6 NW 3.8 0.0 0.2
19:00 16.6 11.7 73 1026.5 2.2 W 3.8 0.0 0.2
19:01 16.6 11.7 73 1026.6 2.2 W 3.8 0.0 0.2
19:02 16.6 11.7 73 1026.6 2.2 W 3.8 0.0 0.2
19:03 16.4 11.8 74 1026.6 3.8 NW 3.8 0.0 0.2
19:04 16.4 11.8 74 1026.3 2.2 NW 3.8 0.0 0.2
19:05 16.3 11.9 75 1026.5 1.6 N 3.8 0.0 0.2
19:06 16.3 11.9 75 1026.6 2.2 N 3.8 0.0 0.2
19:07 16.2 11.8 75 1026.5 2.2 N 3.8 0.0 0.2
19:09 16.2 11.8 75 1026.5 1.6 N 3.8 0.0 0.2
19:10 16.2 12.0 76 1026.5 1.6 N 3.8 0.0 0.2
19:11 16.1 11.9 76 1026.3 2.2 N 3.8 0.0 0.2
19:12 16.1 11.9 76 1026.3 3.8 W 3.8 0.0 0.2
19:13 16.1 11.9 76 1026.3 3.8 W 3.8 0.0 0.2
19:14 16.0 11.8 76 1026.4 2.2 NW 3.8 0.0 0.2
19:15 15.9 11.9 77 1026.5 2.2 N 3.8 0.0 0.2
19:17 15.9 11.9 77 1026.6 2.2 N 3.8 0.0 0.2
19:18 15.8 11.8 77 1026.4 1.6 NW 3.8 0.0 0.2
19:19 15.8 11.8 77 1026.5 1.6 N 3.8 0.0 0.2
19:20 15.8 11.8 77 1026.6 1.6 N 3.8 0.0 0.2
19:21 15.7 11.9 78 1026.3 1.6 N 3.8 0.0 0.2
19:22 15.6 11.8 78 1026.5 1.6 N 3.8 0.0 0.2
19:24 15.5 11.7 78 1026.6 2.2 NW 2.2 0.0 0.2
19:25 15.5 11.7 78 1026.5 2.2 NW 2.2 0.0 0.2
19:26 15.5 11.7 78 1026.3 1.6 N 2.2 0.0 0.2
19:27 15.4 11.8 79 1026.2 1.6 N 2.2 0.0 0.2
19:28 15.4 11.8 79 1026.2 1.6 N 2.2 0.0 0.2
19:29 15.4 11.8 79 1026.6 1.6 NE 2.2 0.0 0.2
19:30 15.3 11.7 79 1026.3 1.6 NE 2.2 0.0 0.2
19:31 15.3 11.7 79 1026.4 0.7 NE 2.2 0.0 0.2
19:32 15.3 11.7 79 1026.3 0.7 N 2.2 0.0 0.2
19:33 15.2 11.6 79 1026.3 0.7 N 2.2 0.0 0.2
19:34 15.2 11.6 79 1026.2 0.7 N 2.2 0.0 0.2
19:35 15.1 11.5 79 1026.3 1.6 NE 2.2 0.0 0.2
19:36 15.1 11.5 79 1026.3 0.7 N 1.6 0.0 0.2
19:37 15.0 11.4 79 1026.4 0.0 N 1.6 0.0 0.2
19:39 14.9 11.3 79 1026.5 0.7 N 1.6 0.0 0.2
19:40 14.9 11.3 79 1026.4 0.7 NW 1.6 0.0 0.2
19:41 14.8 11.2 79 1026.5 0.7 W 1.6 0.0 0.2
19:42 14.8 11.2 79 1026.2 0.7 N 1.6 0.0 0.2
19:43 14.7 11.1 79 1026.4 0.7 N 1.6 0.0 0.2
19:44 14.7 11.1 79 1026.4 0.7 N 1.6 0.0 0.2
19:45 14.7 11.1 79 1026.3 2.2 NW 2.2 0.0 0.2
19:46 14.6 11.0 79 1026.4 1.6 N 2.2 0.0 0.2
19:47 14.6 11.0 79 1026.5 1.6 NW 2.2 0.0 0.2
19:48 14.6 11.0 79 1026.4 1.6 N 2.2 0.0 0.2
19:49 14.5 10.9 79 1026.6 1.6 N 2.2 0.0 0.2
19:50 14.5 10.9 79 1026.3 1.6 N 2.2 0.0 0.2
19:51 14.4 11.0 80 1026.3 0.7 N 2.2 0.0 0.2
19:52 14.4 11.0 80 1026.4 1.6 N 2.2 0.0 0.2
19:53 14.4 11.0 80 1026.3 1.6 N 2.2 0.0 0.2
19:55 14.3 10.9 80 1026.4 0.7 NW 1.6 0.0 0.2
19:56 14.2 10.8 80 1026.1 0.7 N 1.6 0.0 0.2
19:57 14.2 10.8 80 1026.3 0.0 N 1.6 0.0 0.2
19:58 14.2 10.8 80 1026.1 0.7 N 1.6 0.0 0.2
19:59 14.1 10.7 80 1026.3 0.7 N 1.6 0.0 0.2
20:00 14.1 10.7 80 1026.3 0.7 N 1.6 0.0 0.2
20:01 14.1 10.7 80 1026.3 0.7 N 1.6 0.0 0.2
20:02 14.1 10.7 80 1026.5 0.7 N 1.6 0.0 0.2
20:03 14.1 10.7 80 1026.3 0.7 N 1.6 0.0 0.2
20:04 14.1 10.7 80 1026.4 0.7 N 1.6 0.0 0.2
20:05 14.1 10.7 80 1026.4 0.7 N 1.6 0.0 0.2
20:06 14.1 10.7 80 1026.6 0.7 N 0.7 0.0 0.2
20:07 14.0 10.6 80 1026.5 0.7 N 0.7 0.0 0.2
20:08 13.9 10.5 80 1026.2 0.0 W 0.7 0.0 0.2
20:09 13.9 10.5 80 1026.3 0.0 W 0.7 0.0 0.2
20:10 13.9 10.5 80 1026.4 0.0 W 0.7 0.0 0.2
20:12 13.8 10.4 80 1026.5 0.0 N 0.7 0.0 0.2
20:13 13.7 10.3 80 1026.3 0.0 N 0.7 0.0 0.2
20:14 13.7 10.3 80 1026.4 0.7 N 0.7 0.0 0.2
20:15 13.7 10.3 80 1026.3 0.7 N 0.7 0.0 0.2
20:16 13.7 10.3 80 1026.3 0.7 N 0.7 0.0 0.2
20:17 13.7 10.3 80 1026.4 1.6 N 1.6 0.0 0.2
20:18 13.6 10.4 81 1026.2 1.6 N 1.6 0.0 0.2
20:19 13.6 10.4 81 1026.3 1.6 N 1.6 0.0 0.2
20:20 13.6 10.4 81 1026.3 0.7 N 1.6 0.0 0.2
20:21 13.6 10.4 81 1026.5 1.6 N 1.6 0.0 0.2
20:22 13.5 10.3 81 1026.5 1.6 N 1.6 0.0 0.2
20:23 13.5 10.3 81 1026.6 0.7 N 1.6 0.0 0.2
20:24 13.5 10.3 81 1026.3 0.7 N 1.6 0.0 0.2
20:25 13.5 10.3 81 1026.4 0.7 N 1.6 0.0 0.2
20:26 13.4 10.2 81 1026.5 0.7 N 1.6 0.0 0.2
20:28 13.4 10.2 81 1026.5 0.7 NW 1.6 0.0 0.2
20:29 13.3 10.1 81 1026.4 0.0 NW 1.6 0.0 0.2
20:30 13.3 10.1 81 1026.2 0.0 NW 1.6 0.0 0.2
20:31 13.3 10.1 81 1026.4 0.0 NW 1.6 0.0 0.2
20:32 13.3 10.1 81 1026.4 0.0 NW 0.7 0.0 0.2
20:33 13.3 10.1 81 1026.4 0.0 NW 0.7 0.0 0.2
20:34 13.2 10.0 81 1026.5 0.0 NW 0.7 0.0 0.2
20:35 13.2 10.0 81 1026.4 0.0 NW 0.7 0.0 0.2
20:36 13.2 10.0 81 1026.5 0.0 NW 0.7 0.0 0.2
20:37 13.2 10.0 81 1026.3 0.0 NW 0.7 0.0 0.2
20:38 13.1 9.9 81 1026.3 0.0 NE 0.7 0.0 0.2
20:39 13.1 9.9 81 1026.3 0.7 NE 0.7 0.0 0.2
20:40 13.1 9.9 81 1026.5 0.0 N 0.7 0.0 0.2
20:41 13.1 9.9 81 1026.4 1.6 NW 1.6 0.0 0.2
20:42 13.1 10.1 82 1026.2 0.7 NW 1.6 0.0 0.2
20:43 13.1 10.1 82 1026.6 0.0 NW 1.6 0.0 0.2
20:44 13.1 10.1 82 1026.3 0.7 NW 1.6 0.0 0.2
20:46 13.0 10.0 82 1026.4 0.7 N 1.6 0.0 0.2
20:47 13.0 10.0 82 1026.2 0.7 N 1.6 0.0 0.2
20:48 13.0 10.0 82 1026.4 0.7 N 1.6 0.0 0.2
20:49 12.9 9.9 82 1026.2 0.7 N 1.6 0.0 0.2
20:50 12.9 9.9 82 1026.5 0.0 N 1.6 0.0 0.2
20:51 12.9 9.9 82 1026.5 0.0 N 0.7 0.0 0.2
20:52 12.9 9.9 82 1026.5 0.7 N 0.7 0.0 0.2
20:53 12.9 9.9 82 1026.4 1.6 NW 1.6 0.0 0.2
20:54 12.9 9.9 82 1026.5 0.0 N 1.6 0.0 0.2
20:55 12.9 9.9 82 1026.6 0.7 NW 1.6 0.0 0.2
20:56 12.8 9.8 82 1026.3 0.7 N 1.6 0.0 0.2
20:57 12.8 9.8 82 1026.4 0.7 N 1.6 0.0 0.2
20:58 12.8 9.8 82 1026.4 0.7 N 1.6 0.0 0.2
20:59 12.8 10.0 83 1026.3 0.0 NE 1.6 0.0 0.2
21:00 12.8 10.0 83 1026.5 0.0 NE 1.6 0.0 0.2
21:01 12.8 10.0 83 1026.3 0.0 NE 1.6 0.0 0.2
21:02 12.8 10.0 83 1026.5 0.0 NE 1.6 0.0 0.2
21:04 12.8 10.0 83 1026.3 0.0 NE 0.7 0.0 0.2
21:05 12.8 10.0 83 1026.4 0.0 NE 0.7 0.0 0.2
21:06 12.8 10.0 83 1026.5 0.0 NE 0.7 0.0 0.2
21:07 12.9 10.3 84 1026.4 0.7 N 0.7 0.0 0.2
21:08 12.9 10.3 84 1026.4 0.7 N 0.7 0.0 0.2
21:09 12.9 10.3 84 1026.2 0.7 E 0.7 0.0 0.2
21:10 12.9 10.3 84 1026.2 0.7 E 0.7 0.0 0.2
21:11 12.9 10.3 84 1026.4 0.0 E 0.7 0.0 0.2
21:12 12.9 10.3 84 1026.3 0.0 E 0.7 0.0 0.2
21:13 12.9 10.3 84 1026.3 0.0 E 0.7 0.0 0.2
21:14 12.9 10.3 84 1026.3 0.0 E 0.7 0.0 0.2
21:15 12.9 10.4 85 1026.4 0.0 NE 0.7 0.0 0.2
21:16 12.9 10.4 85 1026.3 0.7 NE 0.7 0.0 0.2
21:17 12.9 10.4 85 1026.3 1.6 NE 1.6 0.0 0.2
21:18 13.0 10.5 85 1026.4 1.6 NE 1.6 0.0 0.2
21:19 13.0 10.5 85 1026.1 0.7 NE 1.6 0.0 0.2
21:20 13.0 10.5 85 1026.1 0.7 NE 1.6 0.0 0.2
21:22 13.0 10.5 85 1026.1 0.7 NE 1.6 0.0 0.2
21:23 13.0 10.5 85 1026.2 0.0 NE 1.6 0.0 0.2
21:24 13.0 10.7 86 1026.3 0.0 NE 1.6 0.0 0.2
21:25 13.0 10.7 86 1026.3 0.0 NE 1.6 0.0 0.2
21:26 13.0 10.7 86 1026.1 0.0 NE 1.6 0.0 0.2
21:27 13.1 10.8 86 1026.3 0.0 NE 1.6 0.0 0.2
21:28 13.1 10.8 86 1026.2 0.0 NE 1.6 0.0 0.2
21:29 13.1 10.8 86 1026.2 0.0 NE 0.7 0.0 0.2
21:30 13.1 10.8 86 1026.1 0.0 NE 0.7 0.0 0.2
21:31 13.1 10.8 86 1026.0 0.0 NE 0.7 0.0 0.2
21:32 13.1 10.8 86 1026.2 0.0 NE 0.7 0.0 0.2
21:33 13.1 10.8 86 1026.0 0.0 NE 0.7 0.0 0.2
21:34 13.1 10.8 86 1026.1 0.0 NE 0.0 0.0 0.2
21:35 13.1 10.8 86 1026.2 0.0 NE 0.0 0.0 0.2
21:36 13.1 10.8 86 1026.0 0.0 NE 0.0 0.0 0.2
21:37 13.1 10.8 86 1025.9 0.0 NE 0.0 0.0 0.2
21:39 13.1 10.8 86 1026.2 0.0 NE 0.0 0.0 0.2
21:40 13.0 10.7 86 1026.0 0.0 NE 0.0 0.0 0.2
21:41 13.0 10.7 86 1025.9 0.0 NE 0.0 0.0 0.2
21:42 13.0 10.7 86 1026.0 0.0 NE 0.0 0.0 0.2
21:43 13.0 10.7 86 1026.0 0.7 SW 0.7 0.0 0.2
21:44 13.0 10.7 86 1026.0 0.7 SW 0.7 0.0 0.2
21:45 12.9 10.6 86 1026.0 1.6 W 1.6 0.0 0.2
21:46 12.9 10.6 86 1026.1 0.7 SW 1.6 0.0 0.2
21:47 12.9 10.6 86 1026.1 0.7 SW 1.6 0.0 0.2
21:48 12.9 10.6 86 1026.1 0.7 SW 1.6 0.0 0.2
21:49 12.9 10.6 86 1025.8 0.7 NW 1.6 0.0 0.2
21:50 12.8 10.5 86 1026.2 0.7 NW 1.6 0.0 0.2
21:51 12.9 10.6 86 1026.0 0.0 NW 1.6 0.0 0.2
21:52 12.9 10.6 86 1026.1 0.0 NW 1.6 0.0 0.2
21:53 12.9 10.6 86 1026.2 0.0 N 1.6 0.0 0.2
21:54 12.9 10.6 86 1026.1 0.0 NE 1.6 0.0 0.2
21:55 12.9 10.6 86 1025.9 0.0 NW 1.6 0.0 0.2
21:57 12.9 10.6 86 1026.1 0.0 NW 0.7 0.0 0.2
21:58 13.0 10.7 86 1026.1 0.0 SE 0.7 0.0 0.2
21:59 13.0 10.9 87 1026.1 0.7 N 0.7 0.0 0.2
22:00 13.0 10.9 87 1025.9 0.0 E 0.7 0.0 0.2
22:01 13.0 10.9 87 1025.9 0.7 W 0.7 0.0 0.2
22:02 13.1 11.0 87 1026.1 0.0 SE 0.7 0.0 0.2
22:03 13.1 11.0 87 1025.9 0.7 SE 0.7 0.0 0.2
22:04 13.1 11.0 87 1026.0 0.0 SE 0.7 0.0 0.2
22:05 13.1 11.0 87 1026.1 0.0 SE 0.7 0.0 0.2
22:06 13.2 11.1 87 1026.1 0.0 SE 0.7 0.0 0.2
22:07 13.2 11.1 87 1026.2 0.0 SE 0.7 0.0 0.2
22:08 13.2 11.3 88 1026.0 0.0 SE 0.7 0.0 0.2
22:09 13.2 11.3 88 1025.9 0.0 SE 0.7 0.0 0.2
22:10 13.2 11.3 88 1026.0 0.0 SE 0.7 0.0 0.2
22:11 13.3 11.4 88 1025.9 0.0 SE 0.7 0.0 0.2
22:12 13.3 11.4 88 1025.9 0.0 SE 0.7 0.0 0.2
22:13 13.3 11.4 88 1026.1 0.0 SE 0.0 0.0 0.2
22:15 13.3 11.4 88 1026.0 0.0 N 0.7 0.0 0.2
22:16 13.3 11.4 88 1025.9 0.0 N 0.7 0.0 0.2
22:17 13.3 11.4 88 1026.1 0.0 N 0.7 0.0 0.2
22:18 13.3 11.4 88 1026.0 0.7 S 0.7 0.0 0.2
22:19 13.4 11.6 89 1026.0 0.7 W 0.7 0.0 0.2
22:20 13.4 11.6 89 1026.0 0.7 W 0.7 0.0 0.2
22:21 13.4 11.6 89 1025.9 0.0 W 0.7 0.0 0.2
22:22 13.4 11.6 89 1026.0 0.0 W 0.7 0.0 0.2
22:23 13.4 11.6 89 1025.9 0.0 W 0.7 0.0 0.2
22:24 13.4 11.6 89 1026.0 0.0 SE 0.7 0.0 0.2
22:25 13.4 11.6 89 1025.9 0.7 S 0.7 0.0 0.2
22:26 13.4 11.6 89 1026.1 0.0 S 0.7 0.0 0.2
22:27 13.4 11.6 89 1026.0 0.0 S 0.7 0.0 0.2
22:28 13.4 11.6 89 1026.1 0.0 SW 0.7 0.0 0.2
22:29 13.4 11.6 89 1025.9 0.0 S 0.7 0.0 0.2
22:30 13.4 11.6 89 1026.0 0.0 S 0.7 0.0 0.2
22:31 13.4 11.6 89 1025.8 0.0 SE 0.7 0.0 0.2
22:32 13.4 11.6 89 1026.0 0.0 S 0.7 0.0 0.2
22:34 13.4 11.6 89 1025.9 0.7 S 0.7 0.0 0.2
22:35 13.4 11.6 89 1025.8 0.0 S 0.7 0.0 0.2
22:36 13.4 11.6 89 1026.0 0.0 S 0.7 0.0 0.2
22:37 13.4 11.6 89 1026.0 0.0 NW 0.7 0.0 0.2
22:38 13.4 11.6 89 1026.2 0.0 NW 0.7 0.0 0.2
22:39 13.4 11.6 89 1026.0 0.0 NW 0.7 0.0 0.2
22:40 13.4 11.6 89 1025.9 0.0 N 0.7 0.0 0.2
22:41 13.4 11.6 89 1025.9 0.0 N 0.7 0.0 0.2
22:42 13.4 11.6 89 1026.1 0.0 N 0.7 0.0 0.2
22:43 13.4 11.6 89 1026.2 0.0 SW 0.7 0.0 0.2
22:44 13.4 11.6 89 1026.0 0.0 SW 0.7 0.0 0.2
22:45 13.4 11.6 89 1025.8 0.7 SW 0.7 0.0 0.2
22:46 13.4 11.6 89 1025.8 0.0 SW 0.7 0.0 0.2
22:47 13.4 11.6 89 1025.9 0.0 S 0.7 0.0 0.2
22:48 13.4 11.6 89 1026.0 0.0 SE 0.7 0.0 0.2
22:49 13.4 11.6 89 1026.0 0.7 S 0.7 0.0 0.2
22:50 13.4 11.6 89 1025.9 0.7 N 0.7 0.0 0.2
22:51 13.3 11.5 89 1025.9 0.7 N 0.7 0.0 0.2
22:53 13.4 11.6 89 1026.0 0.0 NE 0.7 0.0 0.2
22:54 13.4 11.6 89 1025.9 0.7 NE 0.7 0.0 0.2
22:55 13.4 11.6 89 1025.8 0.7 NE 0.7 0.0 0.2
22:56 13.4 11.6 89 1026.1 0.0 NE 0.7 0.0 0.2
22:57 13.4 11.6 89 1025.8 0.7 E 0.7 0.0 0.2
22:58 13.4 11.6 89 1025.7 0.7 NE 0.7 0.0 0.2
22:59 13.4 11.6 89 1025.9 0.7 NE 0.7 0.0 0.2
23:00 13.5 11.7 89 1025.8 2.2 S 2.2 0.0 0.2
23:01 13.5 11.7 89 1025.7 2.2 S 2.2 0.0 0.2
23:02 13.5 11.7 89 1025.9 2.2 S 2.2 0.0 0.2
23:03 13.5 11.7 89 1025.9 2.2 S 2.2 0.0 0.2
23:04 13.5 11.7 89 1025.9 2.2 S 2.2 0.0 0.2
23:05 13.5 11.7 89 1025.9 2.2 S 2.2 0.0 0.2
23:06 13.5 11.7 89 1025.9 2.2 S 2.2 0.0 0.2
23:07 13.6 12.0 90 1025.9 2.2 W 2.2 0.0 0.2
23:08 13.6 12.0 90 1025.8 0.0 W 2.2 0.0 0.2
23:09 13.6 12.0 90 1025.8 0.7 W 2.2 0.0 0.2
23:10 13.6 12.0 90 1025.5 0.0 W 2.2 0.0 0.2
23:12 13.6 12.0 90 1025.9 0.0 W 2.2 0.0 0.2
23:13 13.6 12.0 90 1025.9 0.7 S 2.2 0.0 0.2
23:14 13.6 12.0 90 1025.9 0.7 S 2.2 0.0 0.2
23:15 13.6 12.0 90 1025.9 0.0 S 2.2 0.0 0.2
23:16 13.6 12.0 90 1025.9 0.0 S 2.2 0.0 0.2
23:17 13.6 12.0 90 1025.8 0.0 S 0.7 0.0 0.2
23:18 13.6 12.0 90 1025.8 0.0 S 0.7 0.0 0.2
23:19 13.6 12.0 90 1025.9 1.6 S 1.6 0.0 0.2
23:20 13.6 12.0 90 1025.8 0.7 S 1.6 0.0 0.2
23:21 13.6 12.0 90 1025.8 0.7 S 1.6 0.0 0.2
23:23 13.6 12.0 90 1025.9 0.7 S 1.6 0.0 0.2
23:24 13.6 12.0 90 1025.9 0.7 S 1.6 0.0 0.2
23:25 13.6 12.0 90 1025.9 0.0 S 1.6 0.0 0.2
23:26 13.6 12.0 90 1025.8 0.0 NE 1.6 0.0 0.2
23:27 13.6 12.0 90 1025.8 0.0 NE 1.6 0.0 0.2
23:28 13.6 12.0 90 1025.8 0.0 NE 1.6 0.0 0.2
23:29 13.6 12.0 90 1025.9 0.0 NE 1.6 0.0 0.2
23:30 13.6 12.0 90 1025.9 0.0 NE 1.6 0.0 0.2
23:31 13.6 12.0 90 1025.9 0.0 NE 1.6 0.0 0.2
23:32 13.6 12.0 90 1025.9 0.7 SW 1.6 0.0 0.2
23:33 13.6 12.0 90 1025.7 0.7 SW 1.6 0.0 0.2
23:34 13.6 12.0 90 1025.8 0.7 SW 1.6 0.0 0.2
23:35 13.6 12.0 90 1025.6 0.7 SW 1.6 0.0 0.2
23:36 13.6 12.0 90 1025.9 0.7 SW 1.6 0.0 0.2
23:37 13.7 12.1 90 1025.9 1.6 E 1.6 0.0 0.2
23:38 13.7 12.1 90 1025.8 0.7 SW 1.6 0.0 0.2
23:39 13.7 12.1 90 1026.0 3.8 SW 3.8 0.0 0.2
23:40 13.7 12.1 90 1025.9 1.6 W 3.8 0.0 0.2
23:43 13.7 12.1 90 1025.7 0.0 W 3.8 0.0 0.2
23:44 13.7 12.1 90 1025.7 0.0 W 3.8 0.0 0.2
23:45 13.7 12.1 90 1025.6 0.0 W 3.8 0.0 0.2
23:46 13.7 12.1 90 1025.7 0.0 W 3.8 0.0 0.2
23:47 13.7 12.1 90 1025.7 0.7 NW 3.8 0.0 0.2
23:48 13.7 12.1 90 1025.5 1.6 W 3.8 0.0 0.2
23:49 13.7 12.1 90 1025.6 1.6 W 3.8 0.0 0.2
23:50 13.8 12.2 90 1025.6 1.6 W 3.1 0.0 0.2
23:51 13.8 12.2 90 1025.7 4.5 NW 5.4 0.0 0.2
23:52 13.8 12.2 90 1025.7 0.7 NW 5.4 0.0 0.2
23:53 13.8 12.2 90 1025.6 0.7 W 5.4 0.0 0.2
23:54 13.8 12.2 90 1025.9 2.2 W 5.4 0.0 0.2
23:55 13.8 12.2 90 1025.6 2.2 W 5.4 0.0 0.2
23:56 13.8 12.2 90 1025.8 3.1 W 5.4 0.0 0.2
23:57 13.8 12.2 90 1025.6 2.2 W 5.4 0.0 0.2
23:58 13.8 12.2 90 1025.8 2.2 W 5.4 0.0 0.2
23:59 13.9 12.3 90 1025.7 2.2 SW 5.4 0.0 0.2

 

 

UK - WEATHER STATION TOPSITES - UK World Weather Websites

Copyright © Carnkie Weather 2009 - 2021.